GFSFLT1_con_3kmhel_000.txt.gz
Helicity
36 27 28 49 46 55 56 59 65 58 60 51 47 40 23 32 46 47 53 49 41 55 56 60 69 76 68 58 42 35 32 42 45
45 32 33 43 48 55 55 56 55 57 66 55 50 41 29 55 49 58 74 42 45 52 49 49 48 47 52 41 34 28 27 32 30
41 28 34 53 50 54 57 58 55 57 61 52 55 50 31 48 64 79 62 51 43 41 42 49 48 43 41 27 17 22 17 21 21
54 34 49 66 55 56 60 62 68 67 63 58 64 59 28 45 64 69 71 49 38 38 37 49 46 31 21 19 8 2 6 10 14
64 64 71 70 63 57 59 62 72 74 69 68 67 69 48 31 55 100 84 69 44 37 37 42 35 19 4 8 6 -8 -5 -0 4
49 76 99 75 66 60 64 72 82 81 68 68 68 80 63 57 60 91 104 75 52 48 46 47 35 14 2 -0 -7 -13 -10 -9 -8
89 128 107 86 79 69 69 78 80 78 66 86 83 87 66 70 78 107 105 79 54 49 46 49 43 25 11 2 -8 -16 -12 -10 -10
132 151 113 88 81 79 77 82 89 98 91 112 121 110 89 84 84 108 114 88 62 48 43 43 47 40 23 9 2 -0 -6 -2 -7
118 103 110 98 85 68 107 98 112 111 126 104 106 123 125 119 118 129 138 109 84 67 51 47 47 44 42 25 15 12 10 15 13
96 82 83 118 101 89 86 97 77 133 143 139 137 137 138 139 145 143 134 120 111 90 75 67 60 57 55 52 40 31 31 33 33
108 113 97 119 119 80 105 125 113 123 165 178 187 189 186 167 160 163 159 153 140 115 94 83 78 70 70 69 71 68 64 61 58
138 133 125 137 143 132 133 128 131 145 156 184 205 222 218 214 207 204 197 185 160 148 116 103 98 93 90 88 88 89 108 116 109
162 173 180 183 191 171 178 189 196 192 195 199 210 229 223 221 229 237 245 244 249 198 154 139 121 108 100 101 100 100 117 129 123
241 240 238 235 226 238 227 226 252 247 238 229 225 231 252 240 238 269 266 274 268 278 224 174 159 143 128 111 103 106 120 128 118
296 305 291 303 287 264 287 281 270 277 288 256 253 248 239 261 278 291 272 278 296 308 286 270 237 174 152 127 104 102 98 104 98
317 343 325 324 320 292 297 305 299 282 311 288 272 230 238 295 323 320 287 296 313 305 311 302 283 261 166 130 108 87 79 70 68
310 340 355 344 329 308 323 333 330 294 321 304 305 258 240 283 275 268 286 270 280 273 261 278 303 293 252 195 116 95 82 61 54
209 224 275 291 301 285 313 338 332 317 305 330 301 312 303 241 215 206 218 238 336 313 274 238 230 227 206 165 143 127 103 73 70
215 228 240 274 312 289 300 343 364 320 298 330 315 304 333 328 282 295 308 312 312 298 241 197 191 179 193 170 163 146 116 83 82
224 237 222 213 256 264 290 290 311 319 313 320 346 320 309 297 342 318 341 409 443 362 267 237 242 212 202 206 184 147 140 120 101

GFSFLT1_con_3kmhel_003.txt.gz
Helicity
39 48 52 64 63 65 66 83 78 74 58 43 71 62 58 78 63 46 66 53 66 64 64 59 67 69 72 74 71 66 56 55 55
49 50 58 61 62 66 69 76 81 64 59 47 61 49 54 77 72 51 73 72 66 63 60 50 48 59 56 53 50 53 35 33 34
59 41 36 63 55 56 60 64 64 59 54 48 56 42 34 65 86 59 77 77 64 64 64 50 39 42 46 38 32 36 23 19 25
74 43 45 61 59 53 51 54 64 71 68 62 56 44 31 47 80 37 72 77 62 61 57 47 42 43 43 32 21 17 13 12 13
61 63 65 67 61 48 46 54 64 73 67 70 68 58 39 36 54 57 75 80 69 66 62 48 42 48 45 36 24 13 6 3 5
64 67 63 71 65 59 58 61 65 70 72 71 78 92 76 52 49 79 79 81 74 71 65 53 43 40 42 39 33 18 8 0 2
57 69 81 76 74 69 56 58 74 87 85 76 82 96 104 95 86 85 99 91 82 77 70 62 52 43 39 38 37 33 20 13 3
71 123 122 115 86 95 74 78 99 102 93 87 94 119 128 117 121 134 139 116 99 88 78 73 64 57 49 43 40 40 38 23 18
110 146 132 124 94 88 86 95 96 109 105 114 117 141 161 162 148 145 175 152 127 111 94 87 80 74 67 62 57 54 50 49 40
117 149 146 130 122 111 108 102 99 107 113 121 159 148 150 174 197 203 188 182 151 131 122 115 102 94 88 81 74 71 74 66 59
167 161 156 145 164 164 145 142 137 133 143 129 145 149 164 185 205 235 233 205 191 158 133 123 119 114 105 105 101 103 91 88 81
222 198 187 188 193 191 172 156 171 161 145 170 174 180 176 189 210 234 248 252 218 213 157 141 132 128 119 113 113 124 128 117 118
223 223 220 255 245 247 238 210 193 207 203 194 189 200 215 224 233 241 261 275 280 248 217 193 168 153 129 115 112 115 131 136 134
280 262 229 278 297 298 296 269 260 229 212 206 192 201 219 234 252 276 286 295 299 303 255 244 215 184 157 110 102 108 124 140 149
316 293 254 270 279 279 308 269 277 254 248 230 217 231 213 232 256 253 278 283 316 319 293 280 255 212 178 131 96 95 115 119 136
301 290 297 331 324 314 336 307 289 262 337 273 230 205 206 229 264 271 294 304 342 337 330 334 312 270 201 170 127 100 73 87 104
295 286 302 344 334 314 343 348 305 291 356 322 317 224 167 230 240 249 269 271 307 343 349 328 327 310 286 232 169 115 83 66 60
245 237 270 280 343 315 316 323 309 287 288 341 339 312 275 183 151 148 179 196 233 270 273 289 277 274 283 246 194 145 100 42 51
194 214 244 260 293 273 286 305 305 297 275 335 369 326 338 287 207 169 195 203 230 301 332 323 336 320 303 257 233 168 111 65 51
122 180 244 267 257 257 240 207 225 261 277 291 316 346 304 282 333 274 154 228 254 283 313 343 379 369 339 285 232 168 111 63 51

GFSFLT1_con_3kmhel_006.txt.gz
Helicity
47 48 53 53 59 56 56 73 74 69 66 56 49 38 44 55 62 43 63 52 53 60 65 72 76 75 70 65 57 52 48 46 52
54 38 49 56 55 56 54 60 74 64 62 40 55 43 60 66 69 43 61 52 58 56 57 61 62 67 57 58 54 50 43 40 39
61 47 39 51 55 57 57 54 59 66 57 47 45 36 48 77 70 61 43 65 57 60 59 57 61 60 57 52 54 52 46 40 34
60 40 38 48 52 47 47 48 51 58 61 53 48 36 34 73 78 65 53 72 61 62 68 72 69 66 54 48 47 48 47 39 30
57 46 31 47 55 47 42 44 48 56 62 61 54 42 39 44 87 62 52 67 72 70 65 69 72 67 55 48 46 46 47 43 35
52 58 44 58 67 59 49 44 48 57 70 70 63 61 51 49 72 82 58 73 79 83 84 80 77 75 67 57 49 46 42 41 39
58 43 46 46 66 68 60 46 42 57 88 82 72 72 66 79 72 100 83 77 81 81 90 90 87 81 76 69 60 53 48 42 42
49 51 58 85 80 103 80 77 75 88 93 77 77 74 87 95 90 101 96 84 81 87 97 98 94 88 83 78 72 65 62 57 53
50 78 93 131 130 126 103 94 72 76 86 90 78 85 101 119 114 109 111 110 110 99 105 111 107 99 92 88 81 77 73 71 71
84 101 130 153 168 159 127 110 97 96 90 98 111 95 102 125 140 145 135 135 129 108 111 114 116 115 105 99 94 91 89 90 87
99 130 157 162 180 169 161 148 145 137 130 105 123 123 118 143 150 169 161 158 176 158 129 122 119 114 110 105 108 117 111 99 99
134 163 185 167 167 158 170 163 161 164 152 152 147 155 160 164 164 177 194 193 179 184 150 130 125 123 110 107 109 126 134 126 121
179 184 176 178 194 206 231 238 219 228 229 184 194 176 175 163 169 180 204 219 230 208 189 167 146 143 131 110 102 110 121 130 137
238 241 239 248 251 247 247 231 269 212 230 221 193 195 192 185 186 195 212 235 255 254 204 198 190 170 144 104 78 79 92 100 109
244 231 238 281 261 236 260 236 258 257 216 186 168 168 184 194 206 207 211 221 252 278 263 250 221 176 172 145 109 95 95 88 83
227 219 221 280 273 243 249 260 232 236 279 237 172 175 183 190 224 221 227 232 237 248 260 265 259 252 203 182 157 139 119 107 102
195 210 218 247 267 245 243 272 253 252 279 275 230 206 123 169 179 195 188 189 213 235 253 240 234 268 300 293 230 180 142 93 72
153 171 215 227 285 258 252 279 299 241 203 266 264 246 251 200 126 105 85 102 157 188 168 205 234 228 254 250 250 221 172 111 64
94 123 156 182 232 261 258 255 281 246 242 205 275 257 274 266 195 149 120 127 155 187 208 221 225 245 250 234 228 215 215 145 87
158 155 144 156 191 205 203 210 223 242 254 257 236 265 271 276 311 258 158 127 182 208 207 196 194 190 223 258 243 217 187 149 94

GFSFLT1_con_3kmhel_009.txt.gz
Helicity
33 26 27 41 45 46 40 39 41 42 56 49 50 33 47 53 47 45 49 56 42 63 70 75 65 61 72 72 65 57 50 48 50
60 38 27 42 40 43 43 41 39 40 40 32 28 31 32 36 29 51 43 46 59 65 65 72 66 60 64 69 64 62 56 54 51
69 62 41 35 38 38 40 37 35 46 44 37 37 23 20 23 17 24 39 37 53 63 68 68 66 71 67 67 62 61 57 51 51
38 51 41 33 35 37 36 36 39 41 41 39 39 28 27 44 28 19 37 28 45 61 67 64 64 69 71 70 61 57 53 48 46
39 57 41 24 41 37 30 27 25 23 25 26 30 36 34 53 43 32 41 42 39 55 64 63 62 65 68 68 62 58 53 46 43
31 39 27 17 28 40 37 29 21 21 23 26 22 31 57 54 63 48 33 41 50 53 66 67 65 67 65 66 64 63 60 53 48
41 33 14 9 15 22 32 35 29 34 68 64 42 60 60 67 64 77 34 32 49 52 66 79 73 70 67 66 63 63 63 60 55
54 46 37 47 41 65 63 72 83 83 84 79 78 63 52 68 70 70 54 53 59 66 67 73 80 74 71 73 70 67 67 64 60
41 49 45 67 81 86 95 100 84 75 72 80 77 75 73 77 81 72 44 48 62 62 59 66 86 79 73 72 70 71 73 72 70
25 12 20 32 64 101 115 118 121 113 101 99 113 90 85 85 89 94 62 58 70 69 60 66 75 82 76 69 70 79 79 77 78
68 66 80 92 115 119 130 130 129 125 125 104 115 118 111 113 112 119 101 70 80 92 75 71 69 77 89 90 95 96 97 90 90
147 153 155 172 193 170 174 180 182 166 159 150 145 150 139 138 134 141 144 123 93 90 86 88 86 88 82 83 99 108 101 100 105
187 165 169 197 225 230 221 198 185 186 185 175 188 191 168 165 174 172 179 172 171 121 91 119 122 111 103 79 79 88 96 97 97
208 208 190 224 225 242 248 215 240 183 187 198 181 204 214 177 174 171 189 214 221 220 170 167 156 150 130 91 70 73 83 100 111
204 195 204 233 229 217 252 237 241 240 196 194 193 194 201 207 219 192 179 189 216 238 226 231 214 153 138 124 92 85 88 99 109
158 173 185 211 222 210 216 254 220 220 231 205 172 166 164 184 197 184 182 182 212 201 221 250 235 211 158 142 102 94 95 93 101
107 135 146 161 189 185 194 226 217 247 256 251 214 180 127 147 146 157 158 147 164 157 145 162 183 199 211 198 170 140 85 57 70
97 110 128 134 163 157 150 195 226 211 194 225 245 231 196 181 169 178 186 179 196 197 191 168 168 183 205 190 173 156 141 81 50
158 143 134 122 116 124 146 149 163 194 210 191 207 209 211 223 181 188 188 186 207 230 269 242 213 205 237 216 195 178 171 89 56
131 140 132 131 125 133 132 136 135 142 151 162 173 187 231 237 254 195 162 157 214 209 213 213 210 219 241 276 254 193 146 80 64

GFSFLT1_con_3kmhel_012.txt.gz
Helicity
26 28 13 19 15 16 2 7 17 16 22 23 45 37 32 30 12 10 10 21 9 22 36 47 62 64 66 64 58 64 57 52 54
47 35 31 27 14 11 4 3 7 19 17 26 25 21 32 34 12 8 12 5 8 21 36 45 57 60 57 59 59 57 51 46 41
74 61 35 27 19 13 7 1 5 7 16 22 22 22 28 38 21 15 25 17 15 19 35 39 44 51 58 52 50 48 46 45 43
36 33 40 17 14 16 21 16 12 7 5 5 9 18 10 39 28 24 29 21 17 9 28 38 43 47 51 48 52 48 45 45 45
32 12 34 12 -3 -10 7 12 12 13 10 7 9 14 21 38 34 29 24 17 19 11 18 36 36 40 44 44 42 46 44 42 42
12 10 8 -1 -8 -7 -3 11 12 21 29 18 15 19 52 50 55 43 12 8 16 20 5 14 31 35 37 39 42 41 40 39 39
30 20 3 -9 -7 4 5 1 13 39 72 62 34 56 55 53 56 64 5 -5 3 11 12 10 25 35 34 38 37 39 37 37 36
37 35 32 34 27 44 45 56 73 78 89 88 81 70 65 73 65 50 11 1 3 13 15 20 28 39 39 28 32 37 37 39 40
52 53 41 44 53 53 68 87 89 91 92 105 117 104 110 105 102 89 32 20 15 13 23 26 31 40 47 47 36 39 45 42 45
89 78 74 73 76 90 87 91 97 114 112 112 133 130 135 136 139 131 73 35 24 20 17 27 37 39 40 60 73 66 60 56 59
113 101 99 109 137 139 136 139 133 137 145 123 146 142 146 144 152 155 139 74 50 50 45 46 51 52 44 52 83 110 115 102 90
124 129 136 149 163 151 160 161 167 157 164 153 151 155 157 166 171 185 180 165 117 88 71 71 74 75 65 54 57 60 75 80 88
155 161 173 181 189 185 187 169 161 172 179 173 168 178 160 153 164 175 182 178 181 142 86 85 85 93 87 73 69 72 65 70 72
157 167 151 155 165 178 180 160 187 146 147 168 153 156 176 180 182 186 205 211 209 216 157 153 140 134 119 87 73 80 82 86 89
132 147 141 130 130 130 151 151 138 175 157 154 144 154 177 180 205 198 203 206 199 212 192 189 183 133 113 89 76 81 98 112 113
83 96 86 88 103 98 99 108 123 125 154 152 137 130 142 161 174 182 182 172 191 184 201 216 219 215 142 114 60 48 64 89 95
102 92 89 90 89 91 105 126 122 126 119 161 136 111 94 121 115 160 187 174 178 169 192 204 211 219 233 194 121 83 49 48 51
108 99 85 84 74 70 80 88 82 95 115 123 156 162 158 136 139 178 188 171 177 213 190 204 218 222 237 219 194 147 116 51 56
92 91 92 83 80 99 95 98 99 114 116 123 127 148 164 174 132 132 185 184 206 188 211 192 208 223 257 230 215 195 170 104 84
71 88 81 90 90 103 109 123 129 120 138 145 156 166 169 174 201 168 144 167 193 172 171 151 155 198 200 237 223 205 179 85 80

GFSFLT1_con_3kmhel_015.txt.gz
Helicity
35 33 29 23 12 6 3 2 -0 10 -0 -8 5 27 21 36 12 7 15 19 5 -3 4 8 13 28 38 47 45 46 47 35 31
37 62 33 26 24 7 5 4 4 2 -1 -0 -1 -7 -7 28 8 14 21 19 6 -2 -0 13 10 15 23 36 39 39 38 38 32
19 82 47 28 17 12 6 11 8 8 4 -1 -0 5 -2 24 14 14 20 15 6 3 2 20 15 16 17 21 32 32 29 26 26
11 29 33 27 16 4 11 13 19 16 16 10 10 6 18 10 20 22 28 25 4 -2 -7 4 17 14 13 20 23 32 29 27 23
1 33 31 8 9 3 -3 -1 9 17 15 23 23 27 22 16 25 29 35 21 12 3 -1 -9 9 20 14 16 21 20 27 25 20
19 23 16 10 10 6 -1 -1 7 15 25 45 42 43 42 29 37 41 31 20 11 12 5 6 -4 14 25 18 19 22 21 25 23
30 31 29 24 23 26 18 15 15 23 52 63 54 57 49 52 50 51 28 17 13 12 12 11 10 3 21 30 22 23 24 22 22
36 39 37 36 32 36 31 35 48 43 54 64 66 61 61 74 77 65 44 26 14 11 13 17 18 14 17 32 36 29 28 28 27
37 46 39 44 44 43 42 50 42 38 38 47 51 53 62 80 88 83 64 45 35 30 29 30 31 27 28 31 49 66 66 52 46
50 56 56 57 58 60 58 57 55 51 47 52 57 58 59 62 90 94 83 63 48 35 37 47 50 48 47 52 58 68 96 108 91
71 66 68 71 75 73 74 74 76 75 69 65 60 63 67 67 73 85 77 70 67 58 51 45 49 52 54 58 72 68 64 94 113
79 92 98 101 100 90 89 83 81 79 79 64 57 60 55 75 76 90 94 81 74 78 69 64 63 62 60 61 71 83 67 80 110
98 106 104 98 92 87 81 67 58 61 73 73 71 72 70 74 80 90 102 104 117 116 82 82 85 84 75 70 66 84 95 82 87
72 72 71 73 68 64 60 59 65 70 74 78 68 71 80 80 92 90 97 107 136 149 112 125 115 103 79 82 83 94 106 115 122
63 66 64 66 55 48 50 51 62 68 69 80 89 86 90 83 88 79 81 79 87 101 103 132 138 118 89 62 63 69 89 101 114
106 92 96 88 71 68 67 57 55 61 53 67 49 49 63 40 72 104 98 88 111 112 119 146 146 146 121 103 96 81 68 68 76
113 105 94 96 83 94 87 76 50 47 53 44 46 19 41 4 70 69 81 61 79 86 96 98 104 127 141 156 150 135 104 103 88
93 82 68 66 59 54 50 55 57 46 52 84 80 77 131 108 117 125 119 83 103 83 75 87 68 78 99 113 130 135 133 101 83
79 69 63 60 54 77 77 90 96 110 126 118 132 147 155 150 79 121 177 109 129 142 118 68 54 57 90 79 68 81 138 94 59
74 59 50 51 42 61 77 89 94 83 87 90 99 109 128 121 188 128 154 137 118 113 107 97 92 71 51 77 81 67 83 62 51

GFSFLT1_con_3kmhel_018.txt.gz
Helicity
45 42 31 39 38 38 48 55 27 26 43 38 23 17 16 25 6 -0 -10 1 9 19 11 10 -1 -1 3 6 11 9 14 19 13
25 48 52 41 43 47 44 38 36 33 26 17 13 13 25 27 6 20 15 15 13 9 10 5 18 10 8 6 9 10 10 13 12
33 60 47 34 36 40 37 35 34 33 28 27 23 19 27 26 19 21 27 28 19 11 16 15 30 25 19 16 13 19 16 14 14
27 27 25 25 26 35 28 22 22 24 29 27 32 37 32 24 31 29 39 48 33 25 17 25 27 36 30 22 18 15 19 18 17
7 24 34 29 25 29 18 9 8 15 20 23 38 54 51 25 28 40 48 51 35 27 27 19 29 30 35 35 32 29 20 23 21
14 37 32 28 24 19 15 5 -0 8 13 27 47 60 34 24 43 50 62 62 33 31 30 32 28 33 27 49 44 37 37 31 32
24 29 40 26 24 20 17 12 12 23 22 38 69 44 30 43 43 47 65 45 33 32 35 37 40 37 35 35 48 51 43 43 41
26 30 29 28 42 27 29 28 31 23 28 32 37 40 41 53 59 56 79 46 25 26 33 38 41 43 42 42 41 57 70 57 57
28 38 32 37 36 37 43 46 40 37 36 35 40 44 56 68 73 68 103 82 43 36 36 35 38 42 43 44 50 54 66 96 95
51 49 54 57 57 62 67 63 62 61 59 63 64 69 74 78 102 106 116 134 94 63 58 53 46 43 46 54 67 67 63 79 107
92 85 79 74 75 81 78 74 71 68 61 60 64 70 82 83 88 109 102 132 122 96 75 79 82 77 66 59 75 81 75 67 78
90 86 83 81 79 72 74 71 69 61 61 56 62 71 70 76 70 80 91 91 108 118 71 54 65 77 79 77 87 106 117 111 110
81 75 73 84 83 80 73 72 68 68 73 68 64 70 71 62 66 73 76 79 83 96 67 64 60 49 53 62 67 90 108 116 114
76 80 85 83 78 78 74 63 65 64 70 84 77 75 74 62 65 63 61 68 84 95 85 108 115 126 90 64 49 51 77 100 112
111 104 103 88 79 84 84 80 70 62 61 68 74 77 75 81 96 95 104 95 91 98 82 84 92 87 87 112 114 95 76 83 81
139 117 115 104 91 89 80 73 68 62 61 63 60 57 -35 6 27 94 73 56 59 62 65 93 95 99 81 77 65 80 96 102 104
110 103 90 84 67 68 63 58 51 54 66 54 58 38 56 70 231 133 71 70 93 80 83 92 94 111 115 87 79 74 76 51 82
86 73 58 56 48 52 53 62 62 68 75 104 107 84 116 102 71 106 52 101 155 148 111 121 141 110 96 97 98 67 55 25 31
80 68 59 49 39 58 60 77 91 111 122 113 107 119 122 112 76 107 133 61 169 135 120 125 131 124 105 103 94 81 79 63 67
74 48 24 28 44 67 72 83 84 72 84 83 88 96 98 99 144 135 143 118 117 123 121 107 109 127 153 124 95 178 206 152 167

GFSFLT1_con_3kmhel_021.txt.gz
Helicity
48 38 39 30 30 38 51 68 73 72 63 63 78 52 55 61 50 50 37 37 38 43 34 24 10 10 20 21 12 8 7 6 13
36 46 48 39 27 35 48 61 67 63 67 60 58 43 46 44 42 42 47 50 47 41 37 30 31 34 31 25 28 15 19 13 15
60 61 50 34 29 34 38 33 38 44 48 43 41 32 39 28 26 40 41 55 50 40 31 26 40 39 48 45 40 38 35 29 23
38 34 32 36 38 39 44 20 23 14 17 27 40 43 46 36 35 24 44 55 52 42 39 33 44 35 45 49 49 50 45 41 34
30 34 33 42 37 25 21 -1 -6 3 17 23 33 52 62 30 27 52 53 58 65 49 41 42 38 36 38 47 53 54 52 50 45
42 71 60 43 31 20 8 4 -2 4 13 11 30 74 46 16 33 50 41 61 48 35 35 38 43 42 40 50 57 68 60 57 55
50 60 59 44 30 26 9 7 5 18 19 20 55 54 24 41 57 70 59 67 34 24 30 32 42 48 49 51 60 66 67 66 63
54 54 56 52 56 49 42 40 55 28 37 42 42 52 58 80 94 87 107 121 75 52 48 43 44 50 55 59 60 74 81 81 92
68 67 70 62 64 58 62 59 56 53 50 51 51 53 77 108 124 121 124 148 110 88 77 78 77 69 63 62 71 83 88 91 89
99 95 85 79 77 71 66 63 64 62 59 65 64 74 80 94 125 136 110 145 132 103 81 68 66 75 76 72 82 90 95 98 103
103 85 74 74 73 66 72 73 75 78 66 74 74 73 86 90 99 128 128 127 142 121 95 69 57 51 58 65 81 92 100 105 103
80 78 82 82 84 79 71 72 90 93 93 91 90 80 69 81 77 87 96 101 112 124 74 66 69 60 45 47 56 80 97 105 108
85 86 93 114 96 105 107 92 78 80 87 89 101 87 80 68 70 73 78 107 105 114 90 71 51 70 93 81 57 55 74 88 110
121 149 147 111 106 102 112 104 92 81 69 73 73 73 86 83 75 83 85 88 113 108 94 82 102 94 77 72 81 85 83 87 90
167 154 148 136 122 117 106 96 93 86 83 87 100 90 94 63 63 34 107 122 154 156 123 109 107 70 45 27 73 93 88 93 97
176 146 133 123 111 107 101 86 83 72 77 78 82 82 45 77 134 285 135 115 139 150 124 113 140 110 90 69 39 48 57 85 96
134 134 120 114 91 90 76 67 53 60 80 76 75 56 50 127 142 122 128 105 126 127 123 152 157 161 174 175 167 131 73 59 59
117 101 82 67 49 49 56 70 85 77 74 99 86 60 95 83 69 89 52 137 117 128 134 109 112 111 111 114 115 107 164 175 127
77 64 63 59 48 60 54 90 87 90 80 89 94 108 113 111 99 111 156 67 148 109 107 113 95 87 102 106 142 165 209 214 240
78 47 40 47 60 86 88 91 89 90 108 108 94 87 95 102 145 146 139 138 113 112 99 128 140 93 90 137 168 156 146 134 130

GFSFLT1_con_3kmhel_024.txt.gz
Helicity
67 63 48 38 34 34 39 45 56 55 58 51 49 49 52 65 47 39 36 70 63 54 56 53 65 71 61 53 44 32 29 30 29
59 64 53 44 33 30 29 32 32 30 29 26 25 27 42 39 50 44 33 58 46 44 45 51 50 57 56 53 44 43 36 33 33
64 58 56 44 32 30 27 22 15 16 15 16 18 24 35 38 40 37 48 31 29 41 39 42 44 50 48 59 58 51 47 39 42
46 53 43 33 27 18 19 7 0 -1 7 3 17 29 40 57 58 35 20 12 3 31 36 35 38 36 49 44 57 54 53 49 47
39 47 29 25 28 20 14 5 -5 -16 -11 -2 -4 19 37 80 62 50 64 -5 -16 19 27 28 33 41 39 53 48 54 54 51 54
65 53 84 56 27 15 3 -10 -17 -10 -2 -15 -18 24 90 69 46 63 59 35 13 12 16 16 16 21 33 38 48 55 56 58 58
104 87 53 30 19 13 5 -5 -2 12 46 45 23 96 105 75 73 104 77 68 52 47 45 40 35 28 33 38 41 48 63 64 74
78 71 76 65 42 63 46 55 69 71 70 64 59 97 115 125 115 117 96 95 81 71 67 69 59 56 53 51 50 52 57 71 86
85 76 77 79 76 72 60 69 55 61 64 69 81 86 110 120 134 126 103 115 90 84 78 66 64 54 51 55 57 67 66 61 57
103 96 81 71 71 71 68 67 64 68 67 63 62 68 80 99 132 159 120 110 121 85 70 66 51 46 45 41 56 74 74 74 77
104 86 70 74 71 67 83 87 84 77 81 86 87 77 66 65 72 76 76 63 69 72 63 53 46 45 49 61 50 51 79 98 95
92 81 79 107 120 112 106 99 109 115 103 83 73 80 70 58 56 69 84 90 77 96 68 50 62 57 48 46 52 55 60 63 74
126 152 151 132 127 143 151 134 104 93 84 76 79 88 87 80 74 79 88 106 115 118 96 99 68 48 15 33 48 60 62 68 76
220 209 188 196 176 160 133 119 109 79 81 86 86 68 61 73 66 80 133 132 132 125 125 136 132 82 62 47 33 47 68 77 90
244 216 183 176 163 137 112 102 83 76 73 80 81 69 81 84 146 133 116 79 66 73 104 85 111 182 200 224 159 123 89 87 77
195 175 147 126 123 102 98 69 66 59 64 46 41 67 66 81 108 98 63 58 97 112 129 138 100 73 67 52 88 125 123 123 137
125 110 96 88 86 96 86 74 33 35 53 29 30 3 11 73 55 73 86 85 76 69 72 75 76 72 56 40 45 48 70 126 158
80 69 65 70 72 59 54 60 70 48 57 80 62 45 42 47 23 71 30 58 70 96 78 62 95 87 105 107 97 99 116 144 160
61 41 38 35 41 65 60 77 76 93 87 80 107 113 121 92 60 49 122 67 115 88 94 92 67 103 98 85 95 122 204 239 253
40 33 22 27 41 66 82 90 96 89 98 98 101 103 117 112 138 121 131 138 109 116 106 97 106 118 93 108 117 249 265 253 245

GFSFLT1_con_3kmhel_027.txt.gz
Helicity
73 57 39 32 29 27 20 19 26 26 28 27 24 18 16 42 33 16 -5 19 10 44 58 48 50 62 71 75 74 60 46 36 36
65 69 45 33 22 13 6 -3 2 2 3 -0 1 2 3 12 15 13 2 8 16 12 26 34 36 34 43 47 53 51 51 45 40
45 48 43 28 14 4 -10 -11 -18 -19 -20 -23 -20 -13 -2 20 23 21 16 -23 -17 -10 2 13 18 21 16 31 31 43 41 45 44
32 39 25 16 -1 -7 -12 -20 -20 -21 -21 -15 -13 -2 15 52 71 45 38 -17 -36 -21 -13 12 10 9 12 17 19 28 40 40 46
20 37 17 -2 -2 -6 -15 -20 -26 -27 -21 -18 -12 -13 -0 50 74 65 44 -15 -24 -9 -9 11 11 5 2 4 12 17 24 39 43
22 32 22 24 17 -3 -15 -19 -22 -17 -7 -7 -11 -0 65 83 80 74 28 -7 -7 -6 18 32 19 15 11 6 3 7 10 15 32
44 59 67 59 30 14 7 -5 1 18 53 49 31 66 79 105 114 114 48 11 18 16 36 60 63 33 26 26 19 17 17 16 28
52 60 50 50 40 50 46 45 60 66 80 84 95 105 106 141 139 107 58 43 30 19 37 60 84 83 53 30 34 35 40 38 34
62 55 48 55 56 52 54 63 61 61 64 60 49 38 49 72 92 88 53 57 33 15 18 36 44 71 53 36 39 48 67 73 73
93 85 75 65 71 73 64 65 67 64 59 54 55 54 46 31 21 22 18 28 33 35 29 18 16 23 19 23 28 42 43 39 69
99 92 96 100 108 110 103 107 112 120 119 92 69 44 40 33 31 45 49 45 52 61 70 70 39 38 49 43 49 55 54 41 39
111 135 155 145 151 173 177 176 128 96 80 65 63 64 60 56 65 75 96 95 116 140 165 166 175 111 74 60 40 58 69 62 63
200 185 187 187 184 162 138 115 93 86 79 66 73 64 44 51 68 93 109 117 126 127 152 181 177 192 177 174 147 140 99 74 75
194 171 170 171 154 138 113 112 92 75 80 74 78 67 73 93 125 146 133 116 89 71 77 92 110 139 170 162 151 150 163 134 141
179 167 158 144 128 122 104 99 86 71 60 58 61 72 90 109 122 91 75 86 53 76 95 84 68 86 126 137 156 160 142 104 95
155 123 116 112 99 85 86 58 55 49 66 33 40 31 46 84 82 68 84 64 99 100 92 57 49 53 76 90 109 113 123 127 133
112 92 73 67 62 80 76 55 35 28 44 6 -12 -29 2 84 50 68 74 83 79 66 75 42 61 70 92 116 149 158 173 173 182
76 60 47 53 50 47 43 55 60 37 41 67 41 40 63 46 43 45 49 60 66 87 59 71 82 87 88 84 81 113 139 183 215
67 57 46 43 29 51 50 68 63 66 71 53 97 96 116 79 70 146 83 63 94 80 85 81 75 84 80 92 108 125 188 205 223
55 40 35 40 40 48 67 78 90 76 75 83 85 92 97 107 140 110 139 113 117 107 103 94 100 100 91 85 113 160 174 187 189

GFSFLT1_con_3kmhel_030.txt.gz
Helicity
62 45 32 28 20 13 11 7 7 4 4 1 -1 -5 -10 13 20 15 7 6 -4 10 22 21 19 27 30 34 43 46 31 23 14
51 54 46 26 14 8 5 -5 -9 -8 -12 -14 -13 -15 -9 6 19 19 16 13 -1 -1 -2 3 12 21 22 14 12 12 19 23 23
36 37 34 17 6 -1 -8 -12 -17 -14 -15 -8 -14 -3 7 27 40 42 47 19 -5 -10 -18 -8 7 15 11 5 5 12 12 19 15
22 18 11 2 -5 -10 -10 -15 -17 -15 -17 -12 -15 -0 5 35 62 57 59 2 -16 -10 -10 -10 7 14 8 2 -2 8 4 17 24
13 22 3 -11 -13 -9 -10 -16 -19 -22 -19 -15 -11 -9 -2 37 61 68 61 -1 -10 -5 1 -2 9 17 16 14 9 2 2 2 7
1 15 17 5 1 1 -9 -11 -16 -12 -6 -3 2 9 60 66 90 107 57 25 20 20 5 22 36 19 19 16 13 10 6 6 2
31 40 37 12 24 12 4 6 12 26 58 65 45 72 66 78 89 98 55 42 32 24 23 30 36 59 65 48 16 12 17 15 11
14 23 23 37 26 39 40 43 55 57 68 69 66 62 60 72 69 66 38 19 3 3 16 18 14 18 31 41 29 9 13 29 37
27 34 41 41 43 39 51 56 48 55 54 45 47 47 46 44 40 27 23 37 58 73 61 40 30 24 18 17 9 17 19 21 24
76 79 77 57 53 54 67 80 91 99 98 97 97 71 62 60 50 54 68 104 122 118 113 120 118 114 69 54 43 39 53 50 46
102 113 119 129 122 136 130 119 122 122 94 80 68 56 51 60 76 85 91 143 169 174 183 189 180 175 179 148 115 97 106 119 113
144 153 176 162 135 129 128 118 99 99 89 80 76 69 68 84 99 107 112 117 160 195 202 216 211 227 232 227 216 208 187 156 143
156 150 150 130 120 107 95 86 94 100 93 83 93 90 96 103 132 152 151 144 133 137 190 194 203 207 222 215 198 186 190 176 174
148 138 130 109 105 111 97 103 95 91 97 90 82 77 88 121 146 133 121 129 96 97 146 182 196 205 202 204 202 186 169 168 170
147 142 127 110 113 115 103 112 110 95 69 62 64 79 96 120 126 106 105 107 78 97 110 112 84 131 150 166 164 180 186 175 167
146 131 122 99 90 86 93 74 84 78 73 55 62 70 94 100 153 98 167 75 113 115 113 65 41 78 143 162 189 199 209 206 208
136 110 90 86 75 88 85 78 62 53 54 19 1 3 37 81 52 96 60 96 73 67 74 76 77 82 103 111 177 168 181 189 184
109 91 71 63 61 72 68 66 67 56 48 49 46 32 66 54 36 47 73 57 76 66 76 78 88 98 102 116 123 163 171 185 177
97 74 62 63 55 71 61 70 67 69 72 51 90 60 84 68 60 90 59 53 68 61 79 88 87 107 124 131 137 155 182 192 168
92 74 63 64 65 70 85 91 100 80 71 69 64 59 83 87 127 114 104 79 81 95 104 108 118 113 121 127 118 151 152 124 158

GFSFLT1_con_3kmhel_033.txt.gz
Helicity
42 23 27 23 17 13 14 16 16 15 13 16 13 16 14 31 37 36 23 28 14 21 16 22 18 20 14 14 18 18 31 17 10
27 26 32 28 16 8 9 3 4 3 -1 2 3 0 7 29 36 40 34 31 13 5 5 3 8 13 17 14 16 8 11 13 14
46 33 22 18 11 8 4 1 -3 -7 -17 -8 -9 0 8 25 38 40 44 14 -6 -1 -1 -4 -8 5 9 2 8 5 11 21 12
36 24 11 2 -5 -10 -9 -12 -14 -15 -18 -20 -15 -7 -5 21 47 51 65 23 5 1 4 1 -11 3 15 16 14 7 -12 15 5
13 13 7 -7 -9 -13 -12 -14 -13 -15 -16 -9 1 3 9 38 57 79 88 35 30 26 19 12 3 6 21 27 19 13 6 -6 -2
-1 1 10 1 -2 -3 0 -2 -2 8 15 17 21 28 56 51 71 87 62 49 46 35 30 26 20 13 35 44 40 14 5 5 9
18 11 9 11 9 14 11 10 18 30 47 53 48 57 55 60 74 88 49 42 48 46 49 33 32 33 28 23 35 20 11 4 3
21 17 15 26 28 36 43 43 45 43 53 51 58 64 65 61 59 58 77 76 67 69 65 65 67 68 60 31 16 14 14 7 10
41 43 47 45 41 36 42 50 49 56 75 78 74 84 76 70 65 68 89 90 90 94 88 94 88 91 82 78 48 55 49 46 37
64 66 70 61 49 56 74 85 94 97 93 86 80 79 81 79 71 71 106 143 147 142 147 141 142 122 122 167 205 198 150 143 143
75 105 114 113 103 103 103 96 91 85 68 65 68 70 75 85 93 103 126 181 208 195 207 202 216 228 210 223 226 222 228 229 217
96 99 114 111 115 110 104 91 78 81 73 66 72 85 107 105 128 159 148 160 198 213 210 217 225 231 222 221 225 224 217 214 206
123 126 125 112 106 88 79 79 72 73 68 64 84 97 89 119 182 187 171 171 146 165 192 205 221 220 218 222 205 186 168 190 201
149 121 120 107 106 103 89 96 87 77 79 79 80 90 102 146 186 167 172 162 139 112 154 197 192 192 189 186 177 178 200 188 182
156 138 130 111 100 105 96 103 99 83 57 59 67 87 106 153 175 159 167 135 97 111 111 92 90 151 153 163 163 184 187 173 173
163 138 124 104 96 85 88 77 102 86 73 47 71 98 122 121 129 81 106 118 78 107 89 81 80 87 145 181 170 197 202 208 211
157 122 108 102 82 94 92 91 73 76 66 39 27 40 62 104 67 101 117 109 70 84 75 95 105 109 103 119 145 171 186 203 209
141 124 99 87 70 70 70 77 80 69 59 62 59 45 70 70 55 108 118 83 71 65 73 77 88 97 110 123 149 168 195 207 238
136 116 96 77 64 84 75 81 70 67 71 72 101 78 92 96 101 103 102 59 61 60 70 74 77 96 108 102 138 156 182 209 205
133 107 93 90 80 80 97 100 108 93 91 86 82 79 96 89 146 125 101 66 56 72 66 87 99 89 107 124 111 126 163 162 170

GFSFLT1_con_3kmhel_036.txt.gz
Helicity
25 3 17 22 19 16 13 17 19 20 23 26 28 26 27 40 34 32 24 32 18 15 15 17 23 17 21 19 19 15 26 20 12
30 20 19 18 16 13 10 8 9 5 0 2 7 6 14 29 29 30 31 30 9 3 0 1 -8 10 6 14 19 21 11 10 10
10 40 23 13 8 6 7 11 8 7 2 -2 4 15 24 26 39 44 54 32 13 9 4 -1 -5 -1 10 13 1 0 7 1 7
40 31 15 5 1 -2 1 5 3 -3 1 3 7 18 19 31 49 62 77 44 26 19 19 18 18 1 5 12 15 10 4 0 -4
23 21 6 -5 -8 -6 -2 6 9 5 10 12 20 27 35 47 55 66 77 42 36 24 20 14 6 4 4 18 24 22 12 10 11
11 5 6 3 2 5 11 20 18 16 26 30 36 40 44 42 50 65 62 65 60 51 23 26 25 18 19 21 23 29 19 13 11
10 9 -2 1 13 17 26 27 31 39 42 47 50 53 56 62 63 70 88 76 70 66 62 72 63 79 78 63 32 20 21 15 12
38 34 24 27 36 37 37 39 47 46 50 60 67 73 87 76 72 74 88 79 78 81 80 95 92 94 83 74 72 49 54 46 35
53 51 47 47 44 39 44 58 72 91 83 75 76 88 85 76 70 78 110 114 106 101 111 119 123 122 143 170 185 171 161 156 152
66 64 72 71 62 69 84 87 91 93 89 75 71 74 79 82 73 86 139 167 158 144 168 148 181 179 182 182 186 216 242 242 219
95 107 108 112 106 102 98 94 88 83 72 75 75 78 85 86 107 119 131 178 192 193 195 207 211 192 187 190 184 177 187 184 169
115 88 107 102 101 99 97 94 89 87 85 85 84 94 100 99 141 149 164 169 201 194 179 179 181 180 178 173 161 150 151 168 179
121 106 113 101 100 84 76 76 75 72 62 62 76 84 84 120 171 173 167 159 148 156 176 176 165 164 162 154 141 143 151 154 152
115 135 116 109 100 92 69 67 56 38 56 64 79 81 96 149 188 186 160 159 141 109 137 138 128 138 134 126 134 132 142 144 141
159 165 144 117 97 97 75 87 83 58 41 46 61 74 96 134 164 146 128 140 123 85 86 40 49 111 119 122 146 140 149 144 137
176 167 138 106 88 71 81 50 73 63 56 34 66 86 109 119 135 112 89 127 82 63 57 38 65 75 107 111 134 133 134 141 146
189 152 125 102 79 84 73 67 35 30 26 12 -3 38 64 132 111 73 114 102 59 58 76 76 84 94 104 90 122 114 132 140 144
174 144 114 99 69 55 49 43 52 50 43 48 35 22 39 60 57 117 81 111 61 59 63 57 54 67 86 91 96 91 123 129 151
164 138 116 100 74 70 52 55 41 31 47 51 82 77 88 66 70 75 103 71 69 49 61 40 61 64 70 63 78 104 111 135 160
155 130 118 105 85 80 84 84 80 58 59 63 73 90 105 108 142 138 102 65 58 41 39 88 30 41 57 71 63 35 82 105 132

GFSFLT1_con_3kmhel_039.txt.gz
Helicity
24 18 23 25 29 30 24 28 24 28 32 34 43 44 48 47 46 43 38 36 26 19 8 6 11 15 15 21 28 31 33 31 22
30 29 25 22 25 33 27 25 19 20 22 20 25 26 36 35 36 37 39 38 26 19 13 4 -1 1 9 5 6 20 23 21 23
17 47 26 18 23 29 27 27 20 18 17 14 21 26 26 28 28 34 34 32 21 16 17 11 1 -9 -4 2 3 3 8 9 13
9 36 19 13 14 12 11 9 9 3 8 13 18 26 30 29 38 41 42 38 25 20 10 5 1 3 -8 -4 7 11 11 13 11
33 31 13 7 9 10 8 8 6 12 20 25 32 40 35 41 43 43 45 35 31 23 27 17 -1 -0 4 5 14 20 20 17 16
20 22 16 19 22 21 15 20 25 33 44 47 47 43 45 46 52 56 63 63 59 58 67 60 57 54 61 63 43 32 24 19 17
24 25 27 30 23 24 28 31 43 45 49 53 57 61 62 70 67 64 73 67 59 60 67 75 78 83 91 98 105 100 65 45 20
47 38 38 40 40 37 38 42 51 61 72 76 75 69 83 80 69 71 89 89 84 82 93 99 102 106 114 142 152 137 126 117 130
62 65 62 62 58 55 63 81 91 91 88 74 73 74 77 71 68 80 110 113 106 105 118 123 167 151 157 162 164 169 172 175 158
77 84 88 95 84 85 91 91 91 88 79 73 72 75 81 81 84 96 136 144 145 146 164 171 169 147 140 147 146 136 148 146 147
94 110 118 113 99 99 89 84 82 71 71 75 81 89 90 85 107 114 127 175 184 189 182 169 160 154 151 141 128 122 119 120 133
111 122 103 98 87 95 90 85 80 78 79 80 87 96 96 98 124 134 137 145 193 188 181 169 158 153 143 133 131 133 125 111 102
160 138 114 114 96 90 86 73 68 68 65 65 76 78 73 110 135 138 143 149 143 157 193 174 149 130 125 116 110 123 117 111 109
195 141 109 117 102 97 73 71 62 59 55 56 73 71 91 134 152 162 145 153 136 125 131 135 99 97 96 95 95 102 111 107 97
189 141 117 115 114 97 78 74 67 57 48 40 52 76 91 116 152 158 118 125 133 121 102 68 56 69 76 89 101 110 115 103 95
172 129 146 135 120 101 82 62 76 67 49 34 51 68 88 100 118 98 112 126 119 97 88 75 58 67 93 94 95 103 101 102 106
176 153 146 121 101 104 105 70 31 28 32 10 -14 38 55 108 71 83 139 98 118 102 109 78 84 82 80 81 100 106 113 114 124
180 156 133 121 97 93 78 61 46 38 30 49 27 19 47 80 90 112 113 134 93 80 67 51 52 50 56 62 75 79 93 101 103
179 153 134 120 97 82 64 58 52 33 55 34 58 64 73 45 32 59 99 83 71 40 32 31 25 24 36 51 59 82 93 100 115
182 149 133 118 98 89 81 69 63 58 45 47 58 78 88 100 99 93 90 65 37 24 10 3 -7 -1 9 20 15 23 54 56 78

GFSFLT1_con_3kmhel_042.txt.gz
Helicity
45 37 41 45 50 54 56 51 52 45 43 47 40 38 39 21 34 28 40 33 51 29 22 11 12 10 9 9 17 23 25 30 27
50 47 40 36 39 46 45 38 42 33 35 38 37 31 44 22 28 22 25 29 25 14 14 6 -2 -10 -11 -6 -5 3 16 20 20
38 47 37 31 30 32 31 26 29 23 26 31 26 27 27 13 23 27 24 40 21 12 10 8 3 -2 -15 -11 -4 3 9 3 9
54 36 26 20 22 21 21 17 19 21 24 31 30 32 31 22 41 33 32 57 25 16 14 16 1 -1 2 2 -1 8 8 12 14
75 40 25 18 17 16 20 22 27 29 36 43 45 35 15 34 41 45 67 51 54 65 69 46 51 54 61 40 23 12 13 8 12
34 69 47 27 21 25 33 39 44 36 38 48 44 19 50 49 55 58 81 62 63 65 69 64 65 62 63 72 89 101 63 43 29
46 49 42 33 27 33 40 47 42 23 45 52 33 50 46 53 59 77 72 71 78 79 81 85 87 76 82 113 125 129 123 123 107
44 46 39 40 40 39 39 43 56 70 72 67 60 53 56 53 54 89 81 87 89 101 109 110 152 135 135 129 130 132 130 121 123
64 59 62 61 57 59 62 84 79 65 61 55 59 58 59 60 61 93 106 105 107 137 162 181 179 153 146 154 151 147 149 144 134
78 78 76 86 95 89 75 76 63 57 57 53 57 60 64 68 78 97 140 141 142 180 192 178 161 154 149 139 126 118 125 124 127
78 104 101 103 95 88 70 78 62 66 64 58 58 66 73 78 93 105 124 183 203 205 183 168 158 154 149 134 120 115 112 114 113
84 93 87 69 70 68 69 66 65 64 63 56 64 72 80 85 92 105 127 122 190 190 186 172 159 149 138 125 117 111 117 115 97
126 120 103 77 90 80 75 69 64 61 49 43 58 59 58 83 97 108 124 138 127 126 162 154 142 128 111 96 98 98 102 108 101
152 116 110 82 89 90 71 65 58 52 41 33 44 59 69 90 110 127 131 136 126 117 110 105 87 92 82 86 93 99 98 96 100
206 136 124 93 93 78 60 58 59 53 39 29 47 75 82 94 106 122 113 113 113 109 108 98 85 61 70 79 90 98 99 96 94
209 136 123 110 100 79 64 61 61 52 45 32 54 65 78 80 89 90 109 127 105 98 108 95 80 83 74 82 103 106 105 108 106
227 136 132 119 94 89 84 64 45 47 56 43 29 55 64 88 89 103 108 122 127 129 107 99 97 95 93 98 93 110 122 141 138
191 139 128 117 96 89 85 73 57 54 56 66 50 44 85 97 90 101 109 115 127 113 92 83 79 77 80 74 87 107 116 129 136
180 147 141 119 99 91 81 72 70 58 66 52 79 89 99 84 71 80 60 121 80 69 68 65 62 63 70 78 73 97 103 119 123
195 162 140 119 102 94 78 70 76 79 75 85 81 79 75 80 92 82 100 87 68 50 42 32 23 30 33 45 45 86 62 66 73

GFSFLT1_con_3kmhel_045.txt.gz
Helicity
43 42 37 38 41 51 59 60 56 52 51 50 38 29 26 8 3 27 41 23 46 22 24 10 2 1 4 11 11 9 15 20 20
47 44 45 47 44 51 51 49 44 41 39 38 42 47 25 8 19 28 36 60 36 21 26 19 12 8 -0 -7 -2 -6 -2 4 12
50 49 42 44 42 43 43 36 30 29 23 19 19 20 15 1 17 39 27 59 38 32 33 36 34 13 4 -0 2 1 6 7 7
50 49 36 34 30 27 23 20 19 18 18 18 18 18 12 1 48 29 61 68 52 56 66 70 69 66 69 57 25 4 6 -0 1
71 51 40 36 31 27 22 25 25 24 26 27 25 5 -14 8 41 59 80 67 62 68 70 70 70 69 69 66 82 77 68 42 20
35 72 60 44 37 38 36 36 24 9 10 27 21 3 31 49 66 98 110 76 71 76 74 75 75 72 84 103 104 116 120 115 104
91 74 54 40 41 36 34 25 6 6 28 4 9 35 53 62 61 94 99 73 73 81 89 95 116 121 119 124 124 135 149 158 146
47 52 40 36 27 23 18 23 32 75 70 59 46 44 53 55 68 116 104 92 87 102 124 166 165 145 139 140 132 125 120 123 127
65 60 79 57 45 68 67 94 60 40 47 51 58 56 58 70 73 125 129 117 134 145 193 173 166 150 149 143 131 120 119 121 124
93 98 79 91 114 117 73 59 47 48 54 48 50 55 61 70 73 132 135 135 176 203 195 168 147 136 131 125 114 110 110 109 111
102 113 139 120 93 89 65 73 69 58 56 52 51 52 57 68 99 118 156 172 198 180 167 148 136 130 126 123 109 99 90 96 98
115 115 90 83 76 76 73 61 59 57 57 48 57 63 71 65 76 102 141 104 140 146 146 135 133 129 123 118 107 101 94 96 97
86 124 103 74 79 86 86 77 63 59 48 43 49 59 57 63 80 83 107 128 102 96 120 113 106 107 111 106 98 103 98 95 96
120 126 114 82 98 96 85 84 71 48 34 26 44 70 61 83 91 109 110 119 114 117 105 72 72 85 93 97 99 102 105 102 101
166 146 135 111 96 91 91 75 58 50 36 24 41 78 81 94 96 101 91 107 101 111 102 102 102 89 81 78 90 104 110 106 104
188 189 153 132 105 105 87 68 55 53 44 21 46 56 75 77 93 89 99 110 90 107 114 117 105 103 101 82 98 96 101 108 110
237 215 185 155 118 115 96 70 49 49 49 33 9 42 80 74 80 115 121 110 128 119 128 115 109 116 102 105 107 111 125 134 139
275 231 198 174 135 122 102 82 78 51 39 64 52 41 79 117 117 122 110 109 137 123 116 101 105 109 97 106 118 110 104 107 123
271 223 209 158 140 119 94 85 75 58 66 37 82 102 129 117 116 148 92 132 123 109 111 103 90 82 90 97 87 91 102 109 106
291 277 231 179 144 119 96 85 84 77 76 81 83 89 93 96 126 108 114 137 132 122 100 70 75 52 74 95 90 101 105 73 59

GFSFLT1_con_3kmhel_048.txt.gz
Helicity
41 40 41 43 44 48 57 47 41 48 45 42 40 26 8 2 9 9 15 48 43 37 40 34 25 14 8 6 3 -2 -5 8 10
31 30 29 32 37 40 43 41 37 39 40 41 38 24 -3 -1 12 39 44 40 38 31 32 36 36 20 12 -2 -8 -5 -6 -1 4
27 26 25 26 28 30 32 32 28 28 25 22 13 3 -9 -16 25 47 48 61 39 46 51 64 74 82 82 61 11 5 2 -1 -2
42 30 26 30 28 23 22 17 17 20 18 12 6 -2 -5 0 17 89 53 65 64 67 69 75 72 77 79 73 79 80 63 36 16
70 46 38 37 37 31 28 25 20 15 12 12 3 -1 -5 16 55 80 66 82 74 75 71 75 79 75 88 111 115 123 134 139 130
66 30 50 48 40 37 32 23 11 0 -9 -12 1 19 29 45 92 64 96 89 72 75 82 81 99 118 115 115 126 130 138 136 130
74 75 57 45 39 34 25 13 4 25 26 -8 1 40 60 83 92 73 97 85 83 92 103 133 128 121 118 122 123 120 122 123 120
117 65 55 42 30 29 10 26 30 51 67 48 53 62 72 84 73 92 104 95 95 120 174 150 147 134 121 115 105 102 105 104 108
84 88 52 49 58 54 66 79 71 47 39 63 65 72 71 80 85 100 114 107 109 175 167 145 130 121 112 98 86 85 85 95 88
56 99 90 107 142 140 130 95 64 67 80 64 57 52 65 80 112 89 135 141 171 175 151 126 107 103 101 89 89 90 83 92 101
91 137 166 160 148 146 118 104 99 82 73 66 58 66 78 88 113 98 113 138 146 146 123 111 107 106 107 96 89 84 84 90 96
172 191 151 108 131 119 133 117 103 105 78 64 61 70 78 78 95 121 105 95 108 107 103 104 99 94 95 93 93 90 92 93 96
223 182 159 134 116 184 147 131 114 96 77 57 44 56 66 68 108 118 127 91 84 85 91 89 85 83 92 98 100 97 102 103 107
229 202 186 146 156 146 145 147 111 97 76 47 33 63 60 73 106 133 135 116 122 87 75 72 84 78 88 87 90 104 112 108 106
236 206 192 201 190 148 124 134 117 89 64 37 31 64 59 78 94 109 100 105 111 93 97 91 92 109 93 91 90 97 104 110 115
284 256 264 211 162 131 130 133 112 100 68 48 46 40 54 59 60 81 76 108 90 89 100 105 87 83 99 95 82 99 93 100 97
308 327 301 271 237 197 155 108 102 71 73 48 29 44 44 44 48 96 133 120 135 143 120 105 88 97 99 87 88 106 102 96 103
403 372 322 278 242 225 214 155 127 71 53 61 34 51 40 52 102 120 139 119 137 118 96 95 97 106 95 84 99 93 73 83 81
386 359 343 322 278 251 188 145 108 80 62 53 63 77 85 81 96 145 161 179 171 135 123 105 111 102 106 82 93 85 78 76 80
368 359 353 335 281 229 187 155 123 99 80 74 71 86 88 99 133 112 126 114 99 113 120 113 103 89 82 82 89 68 71 69 69

GFSFLT1_con_3kmhel_051.txt.gz
Helicity
20 22 25 32 35 53 48 44 47 37 32 29 24 20 6 3 34 20 47 26 38 34 28 31 27 19 14 6 -4 0 -4 -2 4
20 21 26 31 34 40 40 29 24 30 33 29 22 15 4 28 36 18 35 23 36 25 24 62 71 70 50 25 0 -8 -6 -5 -2
20 17 21 28 27 28 28 26 27 26 23 19 18 11 9 32 66 35 30 50 55 64 66 66 66 71 72 76 85 35 11 -5 3
24 18 15 17 17 14 15 15 17 19 18 13 13 16 19 49 38 51 39 52 58 69 67 76 79 73 89 113 120 126 125 121 119
44 25 17 16 13 12 15 20 21 18 18 19 26 32 38 51 71 54 64 84 69 62 70 75 86 113 109 108 118 121 129 134 137
62 37 32 27 22 19 17 23 23 24 5 23 52 67 68 86 72 52 77 75 73 77 74 104 108 107 104 109 109 106 104 112 119
55 42 43 39 30 23 23 34 37 27 17 34 49 66 86 71 71 69 90 82 81 96 134 127 117 115 110 107 102 104 107 106 110
60 55 40 34 34 31 36 47 50 55 51 52 65 77 84 70 77 81 95 99 100 149 132 121 118 113 102 87 85 80 84 92 100
87 56 37 36 41 55 46 50 73 80 89 73 73 74 87 70 75 91 96 89 118 163 129 109 102 96 87 81 76 78 75 79 86
94 63 52 42 65 55 90 94 112 111 106 99 76 74 87 88 80 78 119 131 144 130 113 99 101 93 91 84 83 80 78 77 83
79 78 85 82 93 119 127 148 148 127 103 104 89 87 92 89 82 79 98 120 122 111 104 99 95 93 88 83 79 78 83 85 78
103 119 156 148 157 197 182 156 158 169 120 101 86 81 81 96 96 93 98 104 109 99 95 92 91 85 88 86 84 81 80 86 86
172 202 181 164 182 184 178 162 146 145 141 91 73 70 71 81 110 93 99 87 85 90 92 91 94 86 93 94 91 88 92 94 100
265 245 214 220 222 196 156 153 139 141 120 88 78 62 63 71 98 104 89 76 78 68 70 89 102 98 94 92 91 88 91 96 102
303 257 253 259 265 212 171 162 173 141 110 84 85 61 55 54 68 77 79 82 100 91 92 95 77 87 73 84 96 92 94 88 106
314 283 292 270 267 209 174 161 154 159 122 97 90 78 60 42 39 52 82 84 87 101 101 71 66 66 73 84 95 82 91 100 87
349 311 311 298 304 246 195 185 182 182 149 98 75 91 74 46 36 59 76 97 116 107 94 81 74 65 71 71 77 77 79 76 79
424 348 363 343 315 262 212 192 197 172 146 116 87 90 61 67 72 82 99 139 147 147 127 97 75 74 78 79 78 65 64 65 60
460 417 394 372 330 296 253 220 200 166 124 123 116 106 96 78 84 107 142 173 177 138 102 98 109 97 98 89 67 50 56 60 68
533 448 408 399 349 287 268 259 225 183 132 106 93 100 104 118 123 102 126 149 129 120 141 108 117 126 124 100 79 54 52 63 66

GFSFLT1_con_3kmhel_054.txt.gz
Helicity
24 22 23 25 34 35 42 42 36 32 28 26 31 37 44 46 28 37 30 27 32 20 25 32 16 6 8 3 -3 -7 -6 -4 0
25 19 15 19 26 27 28 29 29 27 31 35 42 45 57 39 24 35 20 13 30 13 54 53 53 69 69 51 9 -1 -2 -1 2
26 22 16 14 14 19 24 25 24 24 29 30 27 38 57 47 37 20 19 43 40 52 60 65 71 69 67 73 75 74 47 32 43
24 17 16 13 16 16 19 17 17 22 21 27 36 58 68 48 37 36 30 53 56 54 60 60 47 72 92 83 99 117 123 129 116
33 19 9 13 12 12 13 19 25 27 33 50 69 76 59 57 58 54 58 79 59 63 64 68 101 104 102 90 94 91 100 110 124
41 22 18 20 17 16 21 25 29 28 39 65 100 80 65 83 73 58 70 69 67 70 96 118 113 107 102 103 102 101 107 113 121
48 35 30 28 23 24 33 35 30 30 37 67 89 81 85 90 81 62 81 75 81 122 132 116 119 115 106 103 98 96 98 103 105
49 38 29 28 26 33 37 47 48 52 52 81 98 91 86 79 78 85 98 97 109 133 122 121 119 111 98 89 80 76 80 88 90
55 42 41 39 35 38 42 54 74 95 108 102 102 81 71 73 79 84 95 91 164 156 106 110 108 98 87 81 81 79 72 72 81
67 40 52 46 54 44 45 59 90 107 123 116 110 92 80 77 75 81 120 154 158 139 119 112 102 90 85 82 79 79 79 75 77
88 64 47 56 59 58 82 106 117 130 113 122 116 116 95 83 82 84 102 127 132 126 117 106 97 94 86 81 80 81 84 86 85
88 80 73 78 95 132 159 159 162 159 138 133 110 104 93 84 88 91 99 111 115 108 106 102 97 98 101 87 84 85 89 91 96
114 126 121 153 176 183 186 183 176 154 133 121 113 99 84 86 88 88 85 79 83 90 95 92 97 107 110 110 109 92 85 90 95
191 179 194 195 213 191 202 184 151 136 125 107 106 98 88 80 81 74 68 57 63 63 81 95 103 102 106 105 104 100 89 94 94
227 238 262 252 256 239 218 192 176 139 117 120 125 105 93 78 66 61 62 62 65 71 76 87 84 95 94 93 96 103 95 93 94
269 302 329 291 276 246 230 222 177 156 133 153 147 117 105 89 70 58 65 71 82 87 86 83 87 80 73 74 84 96 86 91 93
322 352 349 315 312 284 244 217 190 166 169 171 175 149 118 113 99 90 88 98 120 128 118 95 80 80 80 70 76 82 90 91 97
396 377 414 389 356 290 247 220 189 191 199 205 169 152 104 97 111 126 141 145 159 154 144 118 115 102 93 85 86 76 78 87 90
418 433 450 406 374 317 277 237 208 204 197 205 197 175 139 112 111 118 140 173 172 157 124 129 127 145 143 136 123 101 84 80 92
474 462 504 456 420 382 326 279 241 209 205 204 192 173 165 153 149 129 135 154 157 137 151 141 177 186 187 172 176 192 158 127 111

GFSFLT1_con_3kmhel_057.txt.gz
Helicity
32 32 33 33 48 36 54 57 40 34 28 23 34 41 28 20 12 14 12 31 29 30 44 76 58 14 15 -2 2 -0 -5 -7 -9
33 28 26 29 25 25 31 32 30 25 18 24 39 39 34 24 18 17 29 31 44 70 62 58 69 59 46 56 40 7 -2 -1 -3
38 30 21 14 12 10 10 11 18 21 20 28 50 46 45 38 20 15 18 27 57 60 63 66 67 86 100 105 106 107 116 107 91
44 37 26 17 10 7 7 8 11 20 33 57 69 64 59 41 33 26 28 63 62 63 60 58 85 101 102 117 102 94 103 119 110
48 35 25 23 19 15 14 16 20 35 56 74 70 57 62 62 54 52 48 69 69 62 70 104 118 112 103 96 98 99 100 106 124
47 36 28 26 21 16 17 22 32 49 65 75 75 65 57 72 69 57 56 60 71 74 107 112 121 118 110 110 110 106 111 113 113
49 41 32 33 27 23 30 35 43 62 66 62 78 73 83 82 70 54 57 62 79 119 112 123 118 109 105 102 97 93 96 100 101
49 43 29 29 29 29 36 50 54 53 71 75 89 91 90 77 72 64 66 62 114 105 98 109 107 96 89 84 82 79 80 86 92
69 53 39 37 37 45 52 56 66 87 112 96 93 90 85 78 71 66 77 82 143 135 77 87 98 93 80 73 75 74 74 78 81
84 57 55 49 55 54 64 68 84 109 130 120 100 88 78 72 70 76 112 155 141 114 101 96 91 89 84 79 78 79 79 82 83
94 69 58 61 55 64 74 83 106 126 130 145 121 100 88 82 79 88 110 138 124 112 102 93 88 90 86 81 74 76 85 85 85
100 84 77 64 68 90 103 133 143 149 141 139 119 112 98 88 92 93 106 120 120 106 98 96 93 93 95 88 88 80 81 84 88
115 113 93 92 94 114 151 170 176 153 127 118 113 109 97 84 89 93 90 87 95 92 92 96 99 99 101 97 96 92 73 77 79
145 124 119 145 155 177 200 191 159 136 129 125 120 109 100 85 86 82 80 76 80 76 84 93 101 102 103 104 100 95 84 81 76
171 163 174 216 233 226 214 201 176 136 131 137 126 124 124 112 94 77 86 81 89 101 100 100 93 99 99 100 97 102 96 86 81
205 214 222 265 275 224 237 221 178 165 146 151 138 137 135 130 113 100 98 106 107 119 124 114 103 101 98 89 85 101 95 92 87
253 264 257 281 321 299 282 251 234 197 164 148 157 139 143 160 147 129 117 117 128 151 156 145 130 114 108 101 101 102 105 103 96
295 265 320 323 325 342 301 286 257 246 206 166 173 174 139 148 158 160 154 150 171 181 174 162 150 136 135 138 126 121 109 96 93
363 330 340 382 416 406 338 300 304 287 243 225 205 214 191 170 155 162 161 176 184 191 170 159 163 189 199 211 200 193 166 145 129
392 401 394 409 439 408 376 333 299 301 268 250 219 225 233 201 222 163 158 158 147 160 169 164 202 239 247 207 193 194 168 143 124

GFSFLT1_con_3kmhel_060.txt.gz
Helicity
44 42 28 39 69 65 49 71 60 47 44 44 37 24 19 14 11 9 8 9 18 41 57 70 71 39 54 44 20 7 -1 5 -2
43 39 31 36 39 25 34 42 40 35 33 39 26 19 12 3 -2 2 18 24 71 59 64 68 82 91 96 108 120 75 42 39 32
45 42 35 33 26 20 22 21 19 22 23 22 17 17 18 17 11 5 15 26 54 51 52 59 77 94 94 94 106 109 110 116 105
44 42 36 28 25 19 17 14 19 24 30 31 33 35 44 42 26 27 26 46 57 51 62 86 100 89 94 89 92 91 95 130 142
47 38 32 32 25 21 21 24 32 43 46 44 45 53 64 58 53 43 27 53 56 56 82 100 96 94 95 96 95 95 105 107 103
51 40 29 29 28 24 26 33 44 60 61 59 60 65 62 63 58 48 45 55 52 89 82 104 106 98 100 95 92 89 98 99 107
54 47 39 33 26 25 30 41 57 61 54 61 75 71 76 75 63 48 51 57 103 103 99 103 102 97 92 87 84 83 79 87 93
66 56 46 46 38 37 47 64 62 51 60 70 80 86 84 74 63 56 54 64 114 119 86 97 96 91 85 82 81 78 73 80 89
70 64 62 62 61 58 61 65 69 62 82 87 95 92 82 73 64 57 60 83 140 113 83 93 96 87 78 79 82 81 81 76 80
82 76 77 73 76 70 74 77 83 88 96 96 94 93 86 76 69 68 107 162 139 104 96 87 83 81 74 71 71 72 74 73 76
93 92 80 79 76 83 88 86 95 108 103 106 100 98 93 83 82 87 113 143 119 100 93 91 87 82 74 68 69 68 69 71 71
109 106 98 80 82 92 112 115 126 139 135 127 118 108 94 87 89 99 122 134 127 101 94 92 95 93 86 81 75 68 59 61 64
122 116 100 101 107 110 129 144 158 155 134 123 114 110 100 93 94 100 105 105 114 107 99 97 95 99 100 90 82 77 61 56 56
142 122 101 136 133 138 171 177 175 161 144 126 120 115 107 90 101 107 109 108 108 112 118 124 118 108 104 101 88 82 78 72 67
153 136 137 168 179 181 200 217 205 160 152 157 137 115 98 104 105 107 103 110 112 113 145 145 121 129 108 100 93 90 93 87 77
143 150 160 200 216 200 217 248 217 200 185 192 154 133 123 121 120 127 132 126 128 133 131 126 115 114 116 110 102 99 98 98 86
202 187 189 217 242 248 276 291 267 223 183 178 179 136 135 153 165 161 143 140 150 145 156 145 142 131 118 107 118 116 113 106 92
231 260 256 231 259 267 293 309 294 278 214 188 180 162 133 153 166 171 166 170 176 180 174 171 158 148 141 148 152 157 163 146 123
288 284 277 287 293 299 355 366 339 270 232 205 193 240 204 177 167 184 186 182 191 199 191 177 169 163 163 180 190 197 185 162 138
325 300 336 345 344 353 369 383 345 294 276 279 232 249 258 251 257 218 179 181 171 175 179 173 169 180 192 185 193 210 190 155 127

GFSFLT1_con_3kmhel_063.txt.gz
Helicity
31 20 22 77 40 18 38 77 70 45 38 34 20 11 10 10 15 21 17 7 10 44 69 53 49 60 72 52 9 -1 2 -1 2
30 10 17 53 70 68 60 59 53 44 36 30 12 13 11 9 16 28 42 39 62 61 57 70 91 103 90 104 109 82 55 65 61
29 21 26 21 43 39 38 37 35 30 28 24 18 16 19 14 12 16 29 42 47 48 58 84 89 93 78 86 98 96 107 104 102
26 25 23 22 26 21 28 31 31 30 30 30 31 31 36 25 18 23 28 50 48 64 84 97 91 83 84 87 97 111 113 134 143
29 23 17 14 20 21 20 26 32 34 34 31 33 40 43 35 35 35 38 51 46 76 83 99 89 89 95 93 99 103 102 103 109
44 35 34 36 27 28 33 38 49 52 49 40 38 39 36 43 46 42 40 43 71 75 87 90 84 87 95 99 98 99 96 96 97
55 54 54 53 50 42 45 51 61 43 36 40 48 44 54 56 52 47 38 47 90 77 75 80 79 81 83 83 82 84 86 86 83
69 68 61 60 58 55 58 60 47 44 41 48 58 68 67 61 57 58 51 84 120 81 70 74 72 73 73 73 74 76 75 74 73
76 76 74 73 68 69 69 67 60 50 57 65 72 73 73 71 65 61 57 97 140 77 70 76 70 61 63 68 68 67 70 67 71
82 79 80 84 85 80 82 78 76 72 76 79 79 82 83 85 76 68 86 177 139 94 86 73 65 59 57 55 57 61 61 62 65
85 81 84 87 86 91 88 83 85 89 87 94 93 95 93 86 84 87 100 150 117 98 85 70 63 60 59 56 53 52 50 54 57
89 86 88 85 91 99 106 108 106 108 98 102 102 102 106 104 101 100 110 115 124 103 96 87 83 72 64 61 59 51 42 46 47
92 95 86 87 104 108 115 125 121 126 117 118 117 111 103 96 98 101 110 123 123 126 110 97 88 89 89 78 64 58 50 41 42
102 99 82 93 114 115 128 146 143 139 127 127 121 110 103 96 90 90 112 126 133 128 127 128 124 122 105 83 78 74 69 57 49
110 95 81 111 130 141 149 158 165 148 155 145 129 121 111 100 84 94 117 129 129 131 129 130 133 127 121 98 90 82 75 70 64
119 115 91 121 148 160 146 192 176 199 194 188 143 124 122 110 107 119 126 137 140 136 139 134 124 117 130 112 97 91 77 76 78
168 150 152 141 169 167 194 238 260 234 208 202 185 125 111 120 130 147 151 154 159 155 154 152 141 140 131 119 110 98 98 94 89
218 202 209 193 202 223 234 254 271 304 237 233 218 179 133 131 137 142 154 164 176 185 181 179 175 162 148 137 131 146 128 123 118
237 237 249 251 261 254 274 288 304 349 324 277 203 218 211 189 180 146 157 179 177 198 198 203 199 186 169 165 164 157 140 125 120
228 237 277 291 322 280 313 325 314 333 329 360 315 235 238 250 255 177 210 203 221 239 221 223 206 206 180 153 158 164 147 136 129

GFSFLT1_con_3kmhel_066.txt.gz
Helicity
16 18 18 36 27 17 38 70 47 25 24 25 21 19 15 -12 22 21 27 23 28 42 53 53 62 82 74 32 -4 -10 -11 -8 5
12 -6 34 34 43 56 68 48 39 24 26 22 13 3 -13 0 15 29 33 47 57 54 63 80 90 79 88 84 91 88 70 65 43
4 -7 31 41 44 58 48 32 25 21 25 18 14 10 -8 1 18 22 43 43 37 46 73 71 72 76 72 83 89 96 103 105 103
7 6 1 11 35 38 32 26 23 24 25 23 23 20 -3 15 25 23 38 35 47 70 80 77 80 77 77 86 94 96 100 120 127
17 2 18 25 21 27 27 23 26 31 34 34 34 30 3 21 23 25 48 30 53 70 72 80 67 69 74 84 91 92 100 113 123
45 33 39 32 42 37 31 34 47 49 48 41 39 18 19 24 26 30 50 39 75 73 73 74 63 62 64 66 67 67 72 78 90
48 63 57 57 54 51 50 55 53 15 36 42 36 18 32 35 39 55 39 58 78 72 68 67 63 63 60 59 58 58 62 63 64
58 69 62 57 49 49 45 56 32 35 36 39 39 39 46 48 55 80 66 84 93 73 63 65 66 63 59 57 60 57 57 58 57
67 66 71 69 68 68 55 55 54 50 47 45 52 52 56 55 58 78 83 98 107 74 62 65 63 64 62 58 56 54 55 57 59
69 71 77 76 80 77 73 68 67 57 60 64 70 73 72 79 73 69 74 142 122 85 73 64 57 54 55 52 57 58 55 57 56
69 72 76 85 85 86 81 79 79 78 74 80 80 75 83 87 87 87 102 159 122 92 76 65 61 55 53 55 52 53 53 51 50
69 73 84 83 90 87 91 96 91 94 96 89 86 83 88 90 86 83 93 97 131 102 87 79 79 71 63 55 59 57 46 46 41
75 90 94 83 94 98 95 96 102 100 102 109 107 107 97 88 84 81 83 83 87 113 102 92 84 81 68 81 80 63 56 43 41
81 91 95 92 103 105 95 97 100 116 113 121 122 116 105 99 103 88 88 88 96 98 140 130 119 102 107 104 84 74 67 58 50
95 89 80 100 119 107 109 107 116 111 122 134 131 123 114 110 105 102 92 97 109 107 118 125 127 132 125 110 105 93 79 66 64
98 99 87 95 115 120 120 119 135 155 163 169 159 132 113 108 112 113 104 114 120 123 127 125 131 132 138 133 126 116 92 81 76
125 113 120 112 117 124 139 159 191 167 188 190 177 169 138 123 121 127 122 119 136 142 143 138 138 143 129 148 149 136 123 111 102
117 124 151 154 159 183 177 196 201 239 203 208 224 237 187 184 156 138 139 141 155 151 158 165 161 163 163 151 156 166 144 129 125
122 123 144 177 235 235 254 275 249 253 266 276 235 282 295 201 181 165 139 154 153 169 192 183 190 191 195 210 224 178 155 140 132
155 153 152 177 220 208 257 320 297 314 282 323 356 259 247 249 274 219 212 203 207 185 221 213 212 201 223 200 198 184 166 156 138

GFSFLT1_con_3kmhel_069.txt.gz
Helicity
9 -1 16 44 43 29 54 53 38 24 15 22 19 6 -17 -27 27 29 33 51 24 36 54 58 78 80 76 56 -1 -5 -8 -2 10
22 22 37 25 34 51 61 46 35 24 20 23 13 -7 -20 -26 31 47 48 45 49 55 67 72 62 69 70 86 103 91 81 70 58
16 17 40 46 60 64 48 36 25 17 21 19 15 -2 -25 12 27 42 31 22 35 60 57 64 63 64 84 87 85 84 91 109 105
15 21 42 54 53 55 44 32 26 22 27 23 20 1 -19 -10 30 78 37 48 70 77 71 70 72 70 80 88 90 91 96 103 112
23 17 25 37 44 34 22 20 21 26 28 26 20 4 -28 7 25 69 48 43 69 72 71 68 73 68 76 80 79 86 95 102 102
47 31 66 40 46 30 29 30 35 40 35 26 17 -5 -2 30 40 72 58 55 71 69 66 65 60 63 62 61 67 73 76 84 90
36 76 74 62 65 49 41 48 45 19 37 34 18 4 24 37 40 87 59 64 72 69 68 64 61 56 54 54 56 57 60 61 71
61 66 66 60 61 53 55 58 39 33 38 55 32 22 44 49 60 109 74 75 88 70 64 64 65 59 54 57 56 52 49 51 54
50 58 59 60 77 53 54 57 46 56 54 53 53 53 64 61 73 113 100 103 96 75 66 66 67 64 62 58 56 53 54 53 50
49 58 61 66 75 70 71 64 79 66 72 67 73 79 77 86 87 130 109 117 107 81 68 62 59 60 61 62 63 58 57 57 56
67 76 77 74 77 78 84 89 97 84 82 82 88 89 94 86 100 119 119 161 123 88 71 66 60 59 54 54 55 58 60 61 58
79 79 107 87 79 76 100 109 112 101 103 100 99 101 93 99 109 120 143 118 129 104 81 75 66 62 58 61 60 61 65 62 56
83 94 99 107 80 100 124 124 125 117 121 112 120 117 117 102 104 116 140 130 90 104 99 91 84 83 74 70 69 79 73 53 50
88 102 102 107 149 130 134 134 133 132 138 132 134 129 129 118 119 114 124 139 132 90 133 137 121 105 100 92 92 97 78 64 51
110 111 105 120 159 174 145 143 148 139 140 145 163 154 148 143 141 129 136 133 135 131 171 172 153 136 130 122 121 112 92 78 68
104 120 114 132 138 196 150 152 149 153 165 192 204 193 155 150 153 145 153 151 147 138 163 134 139 155 156 149 138 135 109 98 88
151 133 138 135 159 165 182 143 196 181 213 276 222 203 179 161 171 178 177 169 176 152 167 170 165 158 142 179 169 148 138 142 131
182 184 184 161 161 176 204 192 210 239 247 250 322 263 238 208 173 198 203 187 208 190 180 187 189 221 209 203 185 193 183 165 151
179 179 182 181 189 188 197 232 267 281 286 279 229 333 344 239 218 189 181 200 221 225 222 223 250 236 229 269 271 216 208 191 161
140 162 176 173 207 190 212 222 271 312 307 346 385 306 303 316 338 291 239 233 232 262 258 249 251 255 269 274 282 256 210 202 183

GFSFLT1_con_3kmhel_072.txt.gz
Helicity
15 8 5 14 9 49 59 43 34 22 18 18 5 -18 -2 45 55 44 52 26 32 56 75 68 65 65 82 51 53 42 16 19 26
11 26 12 29 39 72 63 46 34 20 18 12 -10 -23 9 12 43 31 27 19 47 59 60 56 54 61 66 86 86 97 98 88 74
5 23 35 54 73 64 55 43 33 19 16 11 -11 -23 16 27 32 29 9 21 50 52 56 52 57 72 76 83 88 89 96 106 103
37 32 60 57 62 60 47 37 27 23 21 15 -1 -14 6 37 27 38 27 52 65 64 53 56 55 65 75 76 82 89 95 100 102
37 42 72 62 64 57 40 34 27 24 22 16 3 -23 -29 -6 70 54 37 67 72 64 62 62 61 62 63 71 78 82 88 91 95
42 28 67 77 63 52 44 40 42 42 31 20 4 -26 -11 -5 102 57 71 82 84 73 69 61 56 56 57 63 72 75 77 79 80
37 77 67 75 80 54 53 56 52 41 36 26 6 -6 13 61 106 67 84 91 84 76 68 61 59 58 61 62 69 72 73 74 72
110 89 81 89 83 62 67 66 40 17 22 53 36 29 24 78 123 88 93 96 103 82 72 67 62 61 62 66 67 64 64 63 62
84 89 78 77 71 59 71 70 50 36 56 74 59 46 99 112 134 106 120 113 105 89 81 76 73 70 68 63 63 60 58 57 58
63 98 78 58 97 43 79 70 58 64 76 79 83 98 126 138 126 128 126 150 121 95 86 74 71 66 67 68 63 63 62 61 59
72 83 96 76 113 58 105 72 111 139 99 99 121 139 150 138 135 147 133 167 142 102 89 76 72 68 67 68 62 61 63 61 63
96 118 128 124 102 101 114 110 142 170 132 137 144 154 141 131 132 178 181 177 150 116 94 85 74 72 70 71 66 63 68 76 76
115 114 142 145 134 127 125 147 167 190 185 173 168 162 159 136 131 163 185 173 158 134 114 101 86 84 81 73 74 84 89 90 84
138 126 114 152 127 117 141 160 193 229 220 208 178 192 175 153 143 145 177 171 171 148 136 140 130 108 95 99 90 98 96 90 74
163 153 145 140 193 156 197 186 186 228 205 211 192 209 195 168 164 176 165 209 219 182 197 196 190 153 127 131 120 107 105 97 88
185 189 164 170 188 234 215 215 203 220 238 256 264 253 187 177 192 190 196 218 222 268 257 240 220 203 162 159 151 141 125 110 102
245 231 213 188 207 271 242 238 254 233 262 294 307 246 232 190 192 210 217 227 258 247 267 226 224 219 215 216 179 173 146 135 126
225 241 243 227 230 229 286 266 259 248 273 309 319 223 228 222 203 200 227 257 306 276 263 265 241 220 220 209 205 177 187 162 154
165 243 237 248 245 235 246 290 295 351 316 336 253 272 268 233 227 216 207 233 280 295 294 304 278 319 313 236 204 186 185 183 185
117 147 198 223 231 223 209 242 277 312 396 409 408 254 274 313 323 288 294 291 290 300 312 313 360 350 368 332 272 224 192 188 214

GFSFLT1_con_3kmhel_075.txt.gz
Helicity
15 5 2 19 45 47 44 30 17 14 5 -14 11 36 53 20 43 25 25 12 50 60 60 63 60 79 81 90 65 40 35 45 26
5 7 33 28 55 61 58 32 22 12 -2 -24 6 20 17 -0 33 25 26 23 54 53 61 56 58 68 84 82 99 113 101 87 92
11 6 13 50 71 60 54 36 29 14 -0 -19 -3 23 31 8 28 4 13 40 55 51 51 47 52 59 73 80 77 85 102 101 94
24 15 54 69 63 63 52 42 33 19 7 -11 -8 17 28 10 20 20 18 48 54 56 49 51 61 67 71 79 86 93 93 93 95
27 49 76 69 75 74 50 43 36 28 13 3 -5 4 41 35 38 41 33 64 65 62 57 60 64 65 71 75 77 83 88 94 96
40 48 74 74 81 74 58 56 53 45 28 16 3 -3 25 17 54 48 78 86 79 74 68 62 62 66 74 81 83 83 79 77 78
40 45 65 80 84 63 59 65 66 56 36 25 14 11 49 81 73 68 90 95 83 74 71 70 69 71 72 75 79 79 78 77 69
49 62 52 56 77 54 58 67 62 58 58 40 33 28 58 87 93 92 96 97 110 89 82 73 70 71 75 73 74 71 70 67 69
93 87 78 88 73 57 57 56 51 55 59 68 53 70 72 117 128 109 117 119 125 102 88 78 76 78 76 75 73 71 72 71 69
113 94 91 82 76 72 55 55 53 52 66 51 61 87 130 137 144 124 128 134 134 115 92 81 71 73 74 80 77 72 73 73 67
125 108 85 55 66 50 69 67 66 60 74 98 111 139 179 163 146 136 136 155 146 120 99 89 77 74 74 82 80 78 74 68 71
114 125 97 76 59 66 59 62 86 93 88 108 130 162 172 194 167 150 164 162 154 126 106 93 82 77 78 80 80 82 83 75 75
127 114 130 111 124 110 126 128 127 138 157 157 150 164 172 166 183 167 167 178 172 134 120 111 92 77 75 80 81 82 83 86 90
130 128 127 148 170 158 146 145 173 179 189 178 183 187 195 171 180 184 172 184 184 165 133 143 126 99 82 76 83 89 107 105 100
136 139 147 162 161 151 176 162 174 192 208 211 198 197 202 201 188 186 190 184 197 185 176 189 181 152 106 87 95 103 106 109 101
150 156 166 198 190 175 185 206 195 199 240 271 254 225 199 198 200 198 219 231 216 216 223 232 235 208 152 126 113 116 109 109 106
208 219 196 213 238 216 209 272 292 248 277 299 292 251 242 223 208 220 227 248 300 289 270 284 258 240 237 220 162 157 131 117 128
235 218 228 245 264 266 259 270 337 312 341 345 337 269 248 209 195 205 237 260 301 328 326 281 279 248 237 238 258 198 154 146 152
215 212 225 207 258 287 265 281 319 429 340 382 341 416 313 229 188 187 181 216 220 248 294 273 291 270 258 235 224 150 164 172 160
127 150 170 203 222 229 226 232 238 276 308 352 371 365 423 376 303 199 214 243 270 249 259 298 344 305 355 348 268 233 166 155 199

GFSFLT1_con_3kmhel_078.txt.gz
Helicity
15 9 10 50 51 32 22 23 12 5 16 23 26 31 32 33 20 17 34 26 52 50 45 46 62 67 84 49 39 40 55 31 21
0 2 14 48 49 42 29 22 8 -7 5 11 20 17 25 13 26 30 25 28 48 45 51 51 54 65 82 97 107 101 101 103 83
5 24 22 56 59 48 33 22 8 -9 8 13 17 32 22 12 24 19 29 48 49 49 46 54 56 62 70 76 87 101 105 111 124
2 7 30 66 53 48 36 26 11 -1 2 21 26 31 36 25 16 13 26 44 43 49 47 54 60 61 72 80 84 92 100 100 102
0 11 69 61 56 58 33 29 20 8 7 15 47 52 56 34 28 28 30 58 57 56 57 57 58 63 68 74 79 83 90 93 97
20 43 59 51 54 56 36 32 30 20 10 19 38 88 66 31 44 45 66 69 73 65 63 63 60 62 65 67 73 74 76 78 84
34 49 59 54 52 43 37 38 41 31 12 15 21 80 60 68 67 63 87 79 80 75 65 58 59 64 65 67 68 70 69 64 70
52 53 51 47 58 45 31 40 46 39 28 24 25 70 79 85 75 67 96 85 94 79 70 62 60 63 66 68 71 67 66 72 71
43 69 67 70 69 67 58 49 43 43 49 47 40 48 80 83 93 54 100 96 103 93 83 70 63 66 69 68 71 73 70 73 72
64 58 77 79 86 72 66 60 56 55 46 52 63 60 71 99 120 84 97 109 113 103 93 75 63 64 69 73 71 68 66 65 69
83 72 69 70 76 71 69 65 65 57 75 58 67 80 97 129 140 115 112 117 126 105 97 82 70 65 68 72 72 65 67 65 66
106 91 86 65 66 53 58 46 62 61 85 82 85 115 133 154 152 149 146 134 128 114 88 87 76 70 67 73 74 72 75 74 75
135 122 108 86 83 83 81 62 60 65 66 80 89 129 165 167 171 177 172 172 167 127 97 91 84 77 66 70 74 71 79 84 78
150 152 133 126 126 119 113 105 129 142 122 123 117 144 169 177 200 189 183 182 187 175 118 114 110 93 67 66 70 76 83 83 82
152 147 145 160 164 160 173 163 169 173 174 176 164 169 165 184 210 216 205 202 199 191 166 159 156 129 101 66 67 84 95 92 88
151 155 163 191 189 186 195 213 183 172 202 241 220 200 180 174 207 228 241 230 222 213 183 184 196 176 136 106 77 83 92 99 95
153 168 172 191 208 181 194 231 224 206 263 280 286 225 207 221 226 254 261 249 277 253 227 220 217 207 212 179 117 120 99 90 98
167 170 200 199 212 206 216 233 253 213 270 315 307 265 224 177 147 167 230 247 262 257 264 264 250 220 209 181 190 260 177 146 114
194 189 201 196 226 221 224 264 300 338 270 295 235 340 327 259 212 183 140 142 195 240 252 272 303 284 262 188 199 287 316 201 151
174 171 162 163 192 197 210 248 267 256 248 309 283 289 361 384 320 217 236 207 235 257 290 317 339 358 316 299 295 244 331 380 469

GFSFLT1_con_3kmhel_081.txt.gz
Helicity
14 15 46 43 28 15 10 21 25 26 13 3 6 23 26 17 4 17 16 15 36 32 35 45 56 77 43 29 44 60 27 18 23
4 11 37 39 34 15 7 18 21 15 5 7 9 19 15 11 22 27 22 21 31 32 38 40 41 55 85 99 95 96 102 89 73
-12 2 30 36 27 15 3 8 14 3 -0 -1 9 26 16 12 22 21 18 34 43 33 40 43 46 49 56 71 88 89 101 107 116
-19 2 9 28 19 14 -1 -1 -1 -2 1 7 15 20 26 19 14 15 21 36 44 38 44 48 45 51 63 69 75 80 75 74 87
-20 3 10 28 25 25 6 -0 -4 -2 2 17 19 23 46 29 22 22 26 51 53 46 49 51 47 48 52 57 64 73 72 74 75
-31 -1 51 48 36 35 18 11 8 2 8 36 38 48 50 43 37 30 44 54 61 56 55 49 46 47 45 51 54 58 60 58 62
33 32 56 52 51 47 29 14 9 15 12 42 61 59 49 38 55 45 54 63 67 60 61 58 50 49 46 48 52 55 55 55 57
57 56 49 49 55 54 50 40 37 30 23 29 66 65 58 57 70 56 51 66 76 70 66 60 49 50 49 46 51 58 58 58 61
62 59 53 61 66 61 59 55 46 41 39 47 51 68 70 66 74 75 55 59 81 69 64 57 51 53 51 50 51 53 58 62 55
65 48 52 57 70 64 62 63 57 46 44 50 57 77 79 70 86 95 70 63 87 80 72 68 58 53 53 51 53 57 61 61 64
76 58 50 56 70 66 66 71 66 52 57 43 51 51 68 77 94 104 100 75 92 92 74 69 62 55 50 52 54 52 59 64 70
86 79 64 55 59 57 54 49 60 57 59 42 46 51 63 82 104 118 119 109 94 102 67 64 57 52 47 50 53 56 57 65 78
96 95 74 63 67 73 67 69 62 60 77 74 60 66 82 93 114 139 144 151 150 123 88 69 60 58 51 45 57 60 71 79 84
119 117 94 89 95 105 102 87 106 97 90 91 84 105 115 122 151 152 159 168 185 176 129 103 96 88 62 43 46 59 67 78 84
147 145 133 128 129 125 138 134 129 141 124 124 122 119 141 139 167 182 186 197 207 196 169 146 134 103 86 48 41 52 62 72 80
156 156 159 159 160 158 172 194 170 156 188 186 167 149 145 162 177 187 205 224 238 224 212 193 175 156 118 89 49 42 71 94 74
165 160 155 178 188 176 188 233 225 209 235 228 245 195 174 173 164 206 209 208 223 218 214 211 204 194 179 170 127 126 91 100 94
144 144 165 180 203 191 212 241 243 199 204 261 268 216 180 177 134 116 116 128 159 159 165 186 207 247 302 341 384 411 260 177 157
157 162 180 192 223 214 212 215 215 241 207 267 208 259 268 196 182 169 141 125 138 152 184 211 274 316 366 376 387 413 410 434 471
160 166 163 163 183 181 188 198 204 218 208 244 224 232 274 287 267 188 211 221 210 203 192 182 231 270 309 366 425 366 312 278 308

GFSFLT1_con_3kmhel_084.txt.gz
Helicity
-3 20 18 9 4 1 9 5 -4 -15 -23 -16 2 10 7 -3 -5 -6 7 5 22 21 21 30 53 34 40 43 59 30 15 7 37
-8 5 20 10 8 3 8 9 -4 -21 -28 -21 -7 1 3 -2 0 -3 -1 1 24 22 24 28 27 41 63 72 82 84 78 67 74
-19 -8 12 3 3 2 3 9 2 -10 -16 -13 3 8 4 -2 2 -1 -3 26 27 28 30 36 38 33 38 51 57 61 79 94 97
-32 -29 3 -7 -2 -3 -2 3 8 3 -2 0 9 4 13 6 0 4 5 27 30 32 35 33 34 40 48 49 50 57 52 53 63
-45 -25 -12 1 -4 -4 -3 2 9 16 15 14 13 17 25 19 16 8 3 35 42 38 39 34 34 34 39 44 49 53 55 58 63
-13 -26 -7 26 26 19 3 2 11 19 30 28 29 34 31 30 27 24 5 38 50 48 46 43 39 36 36 38 43 49 47 49 52
4 3 46 47 38 36 26 25 32 44 47 35 39 38 41 29 42 41 26 42 60 57 48 49 45 38 32 34 39 46 47 47 50
57 63 56 48 48 41 40 37 37 40 53 65 59 60 49 36 49 45 36 33 54 63 56 51 47 40 34 34 42 46 46 48 52
63 59 54 52 50 49 44 40 38 41 45 69 67 62 58 53 51 43 41 34 38 59 60 53 48 48 41 41 47 49 51 48 50
67 56 55 49 53 53 50 45 42 42 43 50 65 59 56 56 57 57 47 48 37 55 50 52 45 40 42 44 46 48 49 50 53
66 59 50 44 52 56 53 49 47 42 42 38 51 59 54 56 62 66 71 61 62 60 50 49 48 42 37 42 47 48 53 57 63
67 59 51 47 57 54 52 45 48 42 44 35 45 51 55 58 68 75 88 81 71 72 52 46 49 46 38 34 48 53 61 69 76
73 62 49 59 62 65 66 63 54 53 63 63 55 61 68 62 70 84 91 100 104 97 83 66 61 57 45 35 38 59 70 80 86
98 91 70 86 83 78 78 71 86 85 81 83 70 66 67 70 87 90 99 112 132 143 116 89 83 80 57 44 34 63 65 72 78
116 112 91 105 106 94 101 97 108 123 107 99 91 91 80 97 109 109 121 129 136 142 140 123 116 90 86 53 36 36 64 54 63
134 135 123 125 130 127 145 158 140 136 165 161 138 125 127 121 137 144 146 138 143 141 149 147 135 120 100 101 72 69 99 150 117
132 124 132 146 151 146 165 199 185 173 204 212 199 156 129 136 113 118 121 115 139 146 155 149 135 139 143 149 121 136 206 296 325
143 139 157 169 177 172 190 211 218 195 188 204 225 192 155 160 128 107 102 113 110 86 73 88 101 133 170 183 255 301 299 267 277
132 140 162 168 191 182 187 208 221 237 204 238 195 249 277 183 159 162 139 121 112 112 117 124 129 166 198 183 220 267 274 292 229
136 151 157 161 178 166 178 201 203 221 226 225 231 182 196 183 185 152 167 186 143 147 134 136 147 179 176 218 188 205 225 192 200

GFSFLT1_con_3kmhel_087.txt.gz
Helicity
8 7 1 -7 -13 -11 -11 -15 -19 -22 -14 -5 -7 -15 -16 -21 -10 -7 -2 -4 -0 3 5 20 34 41 43 55 36 20 12 33 44
-19 7 2 -6 -11 -10 -15 -20 -21 -21 -15 -7 -3 -5 -7 -8 -13 -13 -7 2 13 13 15 15 17 22 46 60 76 78 73 73 87
-46 2 -0 -0 -3 -4 -6 -11 -14 -10 -8 1 3 -1 -6 -10 -9 -7 -0 11 15 20 20 21 25 27 29 35 36 47 61 67 77
-63 -20 -10 -5 -8 -10 -6 -9 -12 -11 -5 9 9 9 6 2 -2 2 2 20 24 25 23 24 27 29 32 38 44 44 45 49 57
-75 -50 -11 -10 -13 -18 -14 -4 -1 -0 6 13 12 27 22 17 14 11 12 26 32 33 30 30 28 28 31 32 39 41 41 44 43
-28 -36 -9 13 24 15 10 15 28 38 37 33 31 29 19 20 20 20 8 29 36 38 38 34 34 32 32 33 37 40 40 42 41
-11 -2 19 34 26 27 26 32 41 33 30 32 30 25 30 26 25 26 14 24 45 42 42 40 43 38 34 35 39 41 45 49 52
21 26 34 40 39 33 34 38 34 41 39 41 39 38 34 30 29 31 22 21 46 52 45 39 42 42 36 39 43 47 53 56 58
49 58 52 45 42 38 36 38 38 43 44 42 44 43 41 41 39 37 26 25 26 55 48 45 39 42 40 40 49 52 57 59 61
63 63 58 52 45 40 41 41 38 37 38 41 45 46 43 42 44 42 40 30 32 39 48 45 42 39 41 40 45 49 59 61 64
64 64 59 52 50 48 43 41 40 36 32 37 46 46 47 42 40 42 42 40 41 40 41 39 41 40 38 43 47 49 60 69 75
66 55 45 43 49 45 45 46 42 40 32 36 43 48 51 54 49 52 51 54 50 47 39 40 42 42 37 35 47 51 52 71 85
56 44 33 41 49 51 51 54 49 44 45 52 57 55 53 56 57 56 57 61 64 66 55 46 41 46 43 32 34 61 73 64 80
46 43 44 53 57 59 64 56 63 71 72 69 58 61 57 64 70 60 64 65 76 81 74 62 58 57 61 48 40 72 78 79 76
53 47 46 62 63 64 74 73 91 86 90 95 83 75 72 87 81 70 77 83 83 84 84 80 81 74 66 59 57 59 109 129 117
62 64 58 75 80 77 87 103 100 107 125 126 110 113 104 103 76 84 84 101 99 92 80 89 94 92 82 71 54 57 70 132 204
60 57 67 77 96 94 102 127 146 144 152 158 163 131 112 112 105 72 78 53 69 73 75 67 56 58 94 110 82 66 72 139 181
98 97 104 106 112 110 115 145 142 142 159 152 204 207 180 179 149 137 117 89 65 72 82 80 86 86 86 120 113 113 153 168 195
113 123 125 118 129 123 125 136 147 173 173 204 181 211 245 206 170 141 132 123 109 112 114 126 115 118 120 133 121 114 162 178 145
93 105 113 113 143 126 128 156 162 184 202 215 241 201 194 185 189 180 137 117 122 144 134 136 126 99 121 140 136 114 113 95 76

GFSFLT1_con_3kmhel_090.txt.gz
Helicity
-4 -4 -5 -13 -14 -9 -12 -19 -23 -16 -17 -16 -17 -17 -31 -23 -16 -17 -12 -7 -1 6 7 3 17 35 49 43 23 28 41 49 60
-1 -8 -10 -14 -17 -18 -20 -22 -18 -19 -12 -9 -5 -14 -35 -21 -16 -8 -2 3 6 13 18 19 13 21 38 41 57 70 83 85 67
-5 -12 -18 -17 -15 -16 -18 -20 -18 -16 -9 -5 -8 -16 -40 -16 -5 -3 3 4 13 17 21 23 29 35 40 38 42 46 61 60 58
-23 -25 -29 -26 -25 -24 -24 -25 -18 -10 0 0 -3 -9 -33 -6 0 3 12 11 19 21 23 26 26 27 31 33 41 54 57 61 59
-75 -41 -41 -33 -27 -21 -11 -5 1 10 16 17 20 11 -5 15 17 16 25 23 27 31 32 31 32 33 32 35 40 44 52 55 55
-38 -36 -18 5 3 -2 0 6 11 14 19 18 18 5 11 18 19 22 28 29 35 34 32 35 35 37 35 35 40 42 47 51 53
-19 1 10 26 26 21 23 28 25 8 17 29 23 17 28 28 23 30 31 24 43 42 40 38 40 40 41 41 45 45 50 53 52
17 28 28 34 27 25 27 33 21 25 21 28 28 28 34 32 29 46 40 23 44 52 47 41 45 43 43 48 49 50 56 61 60
39 42 40 34 32 37 31 31 38 36 30 30 33 32 34 35 35 55 48 26 22 55 51 46 42 48 45 49 53 54 59 64 69
63 62 55 49 45 41 43 40 43 37 38 41 38 42 38 42 38 38 77 39 26 27 52 52 49 49 59 57 58 59 66 70 80
76 74 63 57 54 55 45 46 45 44 42 42 44 41 46 43 40 42 54 64 39 35 36 54 57 54 50 64 69 56 58 65 75
88 76 69 62 58 48 47 48 45 47 52 44 46 48 43 48 43 48 50 66 71 53 46 45 60 59 52 49 68 71 59 59 68
89 79 66 60 58 51 51 55 56 56 57 63 64 59 57 49 49 60 57 64 64 90 71 50 49 63 59 50 64 79 73 80 71
59 63 61 55 56 56 58 58 57 79 82 79 70 74 68 66 64 60 60 64 74 77 116 87 67 67 63 54 42 83 101 73 74
50 50 50 58 64 60 59 62 73 83 94 97 93 81 76 81 77 70 69 61 65 76 88 88 80 80 66 65 50 48 80 136 106
47 53 55 57 56 60 72 81 92 98 99 115 101 100 85 92 86 81 84 87 72 99 87 71 80 87 85 57 49 37 47 83 183
42 42 49 61 73 72 84 104 111 109 119 132 143 136 139 106 102 105 116 107 106 86 65 69 85 87 99 116 93 66 57 48 110
59 56 71 82 87 94 96 107 114 112 137 123 177 190 166 192 172 149 136 107 123 114 90 94 111 103 141 139 123 91 82 45 71
86 92 96 99 120 120 125 123 116 136 131 169 160 164 244 219 205 181 140 126 132 133 121 133 134 143 141 133 124 106 116 79 43
89 95 104 112 134 125 116 125 125 144 148 161 209 202 207 201 207 182 132 156 149 141 133 124 132 138 141 129 120 129 135 95 66

GFSFLT1_con_3kmhel_093.txt.gz
Helicity
5 -5 -9 -11 -9 -4 -8 -13 -8 -11 -14 -17 -22 -28 -31 -34 -16 -2 2 1 6 8 11 23 37 52 60 66 67 64 80 59 55
1 -8 -13 -15 -12 -10 -11 -10 -8 -10 -9 -12 -25 -37 -33 -12 -4 2 1 4 14 17 22 32 35 41 52 54 56 57 59 51 40
-14 -13 -18 -15 -11 -6 -4 -8 -14 -15 -13 -14 -23 -43 -48 -3 5 15 10 10 18 21 26 32 39 47 58 55 53 54 61 59 54
-22 -22 -21 -19 -21 -16 -16 -12 -13 -6 -4 -5 -10 -22 -31 9 4 29 24 20 28 27 26 27 34 38 45 49 51 56 58 57 55
-48 -50 -43 -39 -37 -30 -21 -12 -8 -3 -1 -1 -3 -11 -2 21 26 42 31 36 39 40 35 32 32 36 38 43 48 54 58 62 64
-34 -41 -20 -19 -15 -7 2 11 15 17 18 15 10 2 11 28 28 64 47 46 49 48 43 40 39 39 40 47 51 56 59 65 65
-36 4 9 24 16 17 21 25 24 12 37 36 24 26 33 39 40 79 69 53 58 55 52 50 50 47 50 57 59 59 63 67 70
21 32 27 30 23 24 26 29 21 27 21 33 29 26 40 42 51 99 75 47 56 64 61 57 61 59 60 64 64 67 72 72 74
28 39 49 37 33 39 5 22 42 35 31 28 29 38 45 46 56 104 91 59 45 62 70 67 64 66 64 70 68 68 68 71 73
56 61 58 46 59 50 43 45 42 34 37 39 37 41 40 48 51 68 96 78 55 46 69 78 71 66 72 76 71 69 65 65 73
85 90 94 87 90 75 64 57 49 42 37 41 53 44 48 47 55 52 82 96 77 59 52 70 79 72 70 76 76 60 64 67 72
94 93 100 94 92 81 73 64 53 48 46 45 46 52 50 62 57 56 54 104 93 82 63 59 78 97 77 67 76 69 68 57 57
99 104 101 98 99 82 69 61 59 61 61 62 64 65 64 56 57 69 75 80 76 104 88 73 66 94 94 77 76 82 67 61 58
98 100 93 89 87 75 69 64 67 77 76 78 75 75 72 74 71 71 75 82 102 82 133 101 99 85 82 66 64 78 121 112 90
86 86 80 75 74 67 69 71 82 83 88 92 92 83 83 97 90 82 85 91 111 95 80 119 113 94 76 73 55 49 82 137 128
72 65 70 68 67 62 70 81 88 101 97 115 95 94 90 97 100 109 103 118 149 114 112 109 96 101 81 84 64 53 47 61 109
59 60 71 64 75 72 81 92 118 117 113 126 132 132 112 126 95 130 161 155 183 137 131 118 105 107 138 180 120 111 58 48 48
73 72 65 71 93 108 108 115 131 143 141 149 168 181 131 180 219 217 198 180 180 150 153 153 147 127 133 144 139 154 129 94 57
77 75 73 94 125 133 139 143 154 182 186 222 147 152 218 198 207 231 185 171 162 149 153 163 153 147 148 143 185 182 141 109 96
43 67 63 94 136 150 142 163 184 182 178 197 235 182 188 211 237 219 188 173 149 167 150 153 155 150 159 158 168 182 155 137 138

GFSFLT1_con_3kmhel_096.txt.gz
Helicity
7 8 7 2 -2 -5 -7 -2 -8 -14 -12 -9 -8 -20 -29 -17 -8 -8 6 -2 19 24 32 40 43 43 50 55 61 64 54 47 40
3 7 4 -5 -10 -8 -1 -0 -1 -12 -17 -25 -35 -16 23 -1 7 3 -3 -1 21 24 29 38 43 45 46 52 62 67 60 51 48
-2 -1 -11 -11 -5 -2 -11 -6 -6 -8 -14 -29 -41 -31 -22 14 21 8 6 20 30 31 34 39 42 46 49 59 69 70 64 59 61
-4 -7 -16 -13 -7 -12 -15 -14 -9 -8 -10 -18 -23 -14 -6 21 13 26 17 32 39 42 41 44 46 48 51 56 62 62 61 60 63
-18 -23 -31 -31 -27 -22 -20 -14 -7 2 4 3 -10 -19 -24 3 67 33 30 48 50 51 53 54 56 53 52 57 63 65 65 62 63
-58 -44 -34 -23 -17 -7 -0 4 9 20 23 17 4 9 34 55 69 46 58 59 60 62 66 64 64 62 61 60 67 66 66 62 61
-37 -13 -9 7 14 18 17 15 17 27 33 22 23 31 21 61 79 56 74 70 69 74 71 69 68 65 65 64 67 68 67 64 62
36 11 14 17 38 28 28 22 5 36 36 33 46 32 57 54 93 85 92 69 75 79 77 72 68 67 66 67 69 68 67 67 62
30 35 28 43 33 42 43 35 8 46 33 25 29 43 49 50 84 82 95 82 71 83 81 73 71 71 71 68 65 64 64 67 62
9 64 37 46 31 37 20 26 70 52 46 47 41 40 39 43 73 86 93 90 85 80 85 80 76 77 75 73 64 62 58 58 56
66 72 63 41 73 57 49 75 63 58 46 46 64 52 41 44 61 88 76 88 86 88 78 84 87 85 84 77 62 55 55 55 53
126 116 129 116 114 98 99 95 96 72 62 62 46 58 46 65 66 63 87 86 79 92 83 75 83 108 100 93 68 56 56 52 49
131 122 127 113 125 110 115 93 78 64 70 69 50 75 69 52 54 71 91 107 106 95 85 83 81 87 91 91 85 97 76 69 62
119 117 119 113 131 119 97 78 84 82 75 75 72 76 77 72 64 74 94 103 131 140 108 98 82 80 87 74 59 66 125 101 87
116 115 109 106 125 104 90 82 85 95 90 79 94 85 76 81 90 97 96 96 150 142 156 134 106 86 81 77 53 49 73 101 100
125 104 94 104 103 71 75 90 97 99 98 120 99 91 80 84 100 97 98 100 202 197 183 152 131 107 89 68 53 35 25 45 75
105 103 81 82 92 69 75 104 123 111 116 126 134 128 113 91 95 108 138 240 273 255 221 203 185 194 183 156 134 132 114 90 68
127 109 85 82 81 91 85 100 131 141 108 139 174 161 111 154 169 207 237 274 279 258 224 197 205 225 214 179 154 155 129 117 100
97 102 101 93 82 91 89 106 139 169 147 186 202 184 218 197 198 236 246 276 268 235 222 218 190 197 204 184 184 162 156 141 129
100 73 57 62 78 91 85 67 100 150 195 224 233 188 199 225 235 219 246 259 230 217 199 189 183 178 176 161 154 160 162 145 130

GFSFLT1_con_3kmhel_099.txt.gz
Helicity
19 13 -1 -3 -3 -8 -7 -10 -6 -5 4 6 14 21 18 -7 -10 -11 -7 -8 19 25 33 38 38 37 46 48 52 56 55 41 47
7 2 -7 -1 -3 -3 -7 -9 -15 -16 -16 -5 14 -3 -1 -12 -8 -7 -5 0 25 30 35 37 42 45 50 51 49 52 46 50 49
0 -4 -11 1 0 -7 -13 -12 -21 -28 -33 -27 -15 -5 16 0 -6 -1 5 22 36 39 42 46 47 52 55 56 54 55 55 50 47
-4 -8 -10 -1 -13 -21 -21 -21 -24 -28 -35 -26 -18 2 11 9 -8 13 9 31 46 50 51 51 54 56 60 57 57 55 51 51 51
-16 -32 -23 -27 -32 -24 -19 -13 -13 -12 -19 -28 -16 -11 38 31 17 13 18 45 52 57 57 58 59 59 57 54 57 54 55 53 53
-54 -58 -31 -28 -29 -15 -3 4 9 6 2 -5 2 8 27 38 30 19 49 56 62 62 59 59 57 58 58 53 56 55 57 56 56
-60 -49 -23 -10 -5 -1 8 14 20 24 8 -3 9 22 35 38 46 29 63 67 69 68 64 60 58 57 53 52 52 54 56 55 56
-33 -24 -16 -5 13 1 15 12 11 21 22 11 19 27 45 60 48 53 69 72 77 77 74 68 65 60 56 55 52 52 54 50 53
8 6 14 12 14 20 24 17 11 18 24 30 21 30 45 54 63 55 74 69 79 83 80 79 76 66 59 58 51 49 50 49 50
39 20 29 23 27 37 37 35 22 5 31 33 42 46 47 60 61 56 75 69 76 80 86 82 84 80 69 59 53 46 46 45 46
45 44 29 24 26 8 28 44 38 30 45 35 41 47 42 49 72 65 63 74 73 74 77 88 89 90 81 68 63 53 47 48 45
72 70 56 49 40 35 31 45 78 72 57 55 57 44 39 40 57 75 74 75 70 75 71 77 86 109 95 86 77 68 54 53 47
116 133 85 89 91 105 107 105 79 60 58 50 44 49 61 63 59 54 81 96 92 86 76 76 68 79 72 69 91 104 73 67 57
143 156 149 135 135 129 118 89 82 71 57 54 53 60 57 52 59 63 80 104 115 111 89 96 76 68 70 52 45 57 102 87 79
148 143 143 141 155 138 120 88 70 76 69 63 54 55 63 65 67 67 80 87 123 130 123 123 101 82 63 47 41 14 37 75 77
135 134 123 141 149 126 107 88 78 71 91 98 75 65 59 64 65 85 91 98 137 182 182 177 149 106 87 95 66 58 38 48 47
116 91 100 108 132 113 90 88 98 82 83 97 102 77 85 77 53 89 108 155 224 275 257 256 237 189 185 195 158 123 86 82 72
139 103 85 84 97 104 95 95 124 129 97 102 109 92 55 85 118 166 218 262 283 299 286 279 247 229 200 163 128 120 108 88 83
90 134 201 236 206 190 97 100 114 151 133 106 84 120 133 130 130 204 250 264 289 279 263 255 247 210 173 157 151 129 127 113 100
126 128 127 120 134 201 174 72 86 110 150 129 125 121 174 167 190 174 229 277 262 250 235 228 206 185 158 136 131 127 122 106 92

GFSFLT1_con_3kmhel_102.txt.gz
Helicity
23 19 13 -0 -4 4 3 -3 -11 8 17 -3 8 8 8 -4 -20 -25 -18 -20 9 16 17 16 22 25 25 27 26 32 30 31 32
14 8 -7 -14 -7 2 -3 -20 -21 -9 1 4 2 -3 -2 -22 -24 -23 -18 -11 19 24 25 28 30 34 36 36 34 36 34 36 34
9 1 6 -4 -7 -10 -24 -42 -41 -34 -15 1 13 2 -1 -13 -17 -15 -14 16 31 33 33 36 37 39 40 39 38 40 38 41 37
-0 -8 -13 -18 -24 -29 -44 -50 -48 -31 -7 21 19 14 9 -6 -17 -7 -9 27 37 40 39 39 41 46 45 46 43 41 38 44 41
-16 -27 -35 -44 -38 -29 -35 -38 -30 -22 -0 16 14 30 24 9 1 -1 1 37 40 43 41 40 44 45 45 46 45 45 43 46 45
-50 -58 -49 -48 -39 -22 -17 -18 -11 -7 -7 -0 12 23 21 16 5 4 34 42 45 48 46 44 45 45 47 48 47 47 47 45 47
-71 -68 -46 -36 -13 -10 1 1 2 5 -6 -1 10 13 32 17 13 13 46 52 54 57 51 49 48 45 44 47 48 48 46 48 51
-62 -51 -43 -31 -8 2 4 8 5 6 3 2 7 16 43 30 21 27 50 57 59 62 60 56 54 50 48 48 50 47 44 47 49
-45 -39 -26 -15 -3 11 19 14 9 -0 -11 -6 8 25 38 38 35 33 52 56 63 64 64 62 61 57 58 52 48 51 46 47 45
-17 -19 -4 -9 9 24 28 23 17 9 -0 3 18 36 50 47 44 40 45 50 50 65 67 68 67 68 69 58 54 49 44 39 47
14 20 20 21 31 32 38 26 21 10 24 20 25 25 38 49 51 45 38 50 47 48 63 74 77 73 70 74 62 55 51 44 46
39 40 40 24 23 38 49 37 32 41 37 31 27 26 25 36 48 49 50 50 50 52 49 50 79 84 80 76 74 64 55 48 53
67 71 68 53 53 62 65 63 80 69 59 52 37 34 32 28 44 59 59 62 64 54 53 48 53 66 61 49 84 93 81 68 66
115 97 77 84 87 99 103 99 102 86 64 44 42 41 44 44 50 45 57 71 85 78 66 60 61 61 38 22 27 57 85 85 74
145 141 131 136 135 131 131 130 116 94 75 65 52 45 42 46 56 58 60 76 82 94 94 83 77 68 54 28 21 18 29 67 69
149 163 165 167 156 127 128 142 129 99 88 103 79 56 47 46 59 64 74 83 84 135 150 133 130 127 133 124 107 75 51 36 40
135 140 127 145 129 108 106 123 136 112 102 121 125 110 91 75 66 76 99 110 173 229 258 242 211 190 157 157 142 105 72 65 70
181 146 129 131 99 107 117 107 89 82 111 101 102 107 87 85 79 111 174 202 266 303 275 269 239 201 185 153 121 110 97 77 74
170 146 109 131 150 224 229 177 179 214 211 151 105 114 109 196 90 85 155 224 279 255 227 251 217 192 167 147 122 112 101 90 93
176 193 196 132 142 112 126 177 180 190 229 294 297 234 128 147 219 91 149 219 226 239 217 220 197 196 174 127 103 104 99 89 82

GFSFLT1_con_3kmhel_105.txt.gz
Helicity
28 27 20 7 8 -2 -2 11 4 -11 -5 -3 3 -0 -1 -9 -25 -31 -24 -27 3 7 8 6 8 14 18 18 20 21 24 28 28
15 9 -0 -2 -5 -8 -2 -4 -11 -12 -13 -12 -7 -6 -7 -26 -24 -28 -27 -19 12 16 17 18 20 21 24 24 26 29 29 28 32
5 -5 -15 -16 -16 -21 -21 -24 -25 -26 -17 -8 -0 -0 -7 -18 -19 -22 -23 7 21 24 23 24 28 28 30 31 32 32 34 33 33
-4 -12 -16 -29 -38 -45 -43 -36 -21 -13 4 3 7 6 5 -8 -23 -17 -20 13 27 28 26 26 31 33 36 36 37 37 37 38 37
-18 -26 -38 -51 -52 -52 -48 -40 -18 -5 9 15 17 16 8 -3 -7 -11 -10 22 28 30 31 31 36 37 39 37 40 39 36 43 41
-44 -63 -58 -55 -50 -37 -23 -15 -11 16 18 6 14 19 -4 -5 -10 -11 17 24 27 27 28 33 36 36 37 40 42 41 38 44 43
-67 -76 -62 -53 -42 -32 -21 -2 5 10 15 2 6 -6 9 -3 -9 -11 21 31 32 29 29 34 35 37 42 42 44 41 41 44 44
-78 -70 -56 -40 -23 -18 -13 -0 -0 12 16 15 2 5 13 9 -1 -5 21 32 35 34 33 39 40 44 49 47 43 48 48 44 43
-64 -50 -35 -22 -14 -5 1 2 8 8 8 2 10 12 22 22 18 6 19 25 36 38 40 43 49 54 57 52 53 52 48 40 41
-43 -36 -22 -14 7 15 18 20 17 10 9 15 14 22 28 34 29 22 16 18 33 41 43 46 50 58 63 65 57 49 48 42 39
-15 -9 -0 7 18 30 37 36 36 29 19 12 22 28 33 32 39 34 26 20 23 32 43 52 47 55 71 70 65 55 54 47 44
16 23 21 25 38 40 41 40 43 35 39 23 23 29 38 38 40 43 43 36 26 25 20 27 44 64 62 80 72 72 63 59 53
59 59 40 47 65 74 69 60 51 52 61 54 45 39 36 36 39 47 53 51 52 42 26 7 21 40 44 39 60 87 80 80 71
71 61 51 73 77 79 90 88 92 96 80 69 57 49 40 35 47 48 50 53 60 60 51 36 28 23 21 15 4 43 78 88 79
77 82 82 103 112 99 110 116 118 104 98 94 81 62 56 51 44 44 54 57 64 74 72 68 64 61 41 29 19 43 44 51 81
132 120 121 133 131 116 122 133 120 107 112 120 106 94 71 75 58 56 58 63 68 79 95 108 137 126 156 123 89 74 71 68 14
168 161 158 147 161 139 128 138 133 105 101 131 112 129 134 124 120 90 105 117 125 141 150 188 170 164 163 132 132 95 73 55 54
155 160 149 153 163 176 200 151 123 235 186 164 131 120 134 140 103 117 104 142 161 156 192 220 214 151 149 136 116 103 81 60 50
177 163 177 162 156 125 185 141 167 261 196 140 137 193 210 194 244 146 154 125 127 150 191 133 203 179 141 141 120 92 71 70 67
201 181 162 152 169 168 164 116 233 205 171 158 185 177 198 216 250 200 125 131 155 136 177 137 188 161 150 153 111 83 63 65 72

GFSFLT1_con_3kmhel_108.txt.gz
Helicity
21 25 14 -1 -2 6 -0 1 5 -9 -13 -18 -12 -10 -4 -8 -25 -26 -25 -34 -0 6 8 14 15 18 17 20 22 24 26 28 29
16 9 -1 -12 1 4 -8 -9 -10 -21 -22 -20 -14 -12 -8 -28 -25 -28 -32 -24 10 14 18 22 24 23 27 26 29 26 29 31 29
4 -2 -10 -11 -7 -14 -27 -22 -20 -21 -18 -16 -11 -11 -12 -19 -20 -25 -28 1 15 18 24 24 29 30 34 31 34 30 32 33 36
-10 -22 -26 -27 -32 -35 -37 -26 -27 -20 -13 -11 -6 -3 -3 -15 -22 -25 -34 3 16 19 19 24 29 32 34 36 40 34 41 36 35
-33 -41 -48 -55 -47 -43 -41 -31 -16 -7 -7 -0 -3 -0 2 -10 -16 -27 -27 6 14 15 16 20 25 31 33 36 39 37 38 37 38
-24 -48 -50 -57 -56 -45 -27 -16 -5 3 4 -2 4 3 -15 -13 -21 -31 -5 12 17 19 18 20 26 33 38 43 43 35 38 43 39
-48 -60 -57 -47 -37 -23 -12 11 18 2 -7 -7 -3 -11 -3 -9 -15 -25 1 15 22 24 25 27 28 36 42 41 39 44 43 46 44
-66 -66 -62 -41 -24 -14 -4 4 15 19 5 2 -0 5 8 -0 -5 -18 -5 16 26 30 30 30 33 38 37 43 45 45 46 41 39
-64 -54 -37 -24 -18 -10 -3 2 11 18 18 11 4 7 15 15 7 -6 -7 11 30 37 38 40 42 38 51 61 45 43 44 37 34
-53 -47 -29 -17 -6 -2 7 16 22 17 14 18 13 8 14 16 19 14 4 10 21 34 38 43 43 40 56 59 54 45 46 37 32
-29 -19 -13 -2 7 16 22 30 34 31 31 23 28 22 23 23 25 24 14 9 14 20 33 40 45 41 53 51 49 54 51 46 40
-4 2 5 12 30 42 44 43 42 33 35 43 48 45 41 38 36 34 28 18 8 9 8 21 29 41 50 60 69 68 63 62 57
22 28 22 41 53 54 55 56 54 53 53 59 62 69 62 53 50 47 49 45 41 26 15 5 12 18 18 23 41 75 71 76 70
46 42 50 75 78 75 80 78 82 84 77 73 71 70 74 66 65 56 51 49 51 56 38 26 27 24 18 21 28 31 56 74 77
54 54 68 99 110 101 103 103 102 101 97 88 87 75 66 77 79 71 65 58 54 58 59 48 63 63 50 58 62 73 63 20 60
72 60 78 106 108 99 128 142 133 112 115 115 80 73 93 117 90 87 84 79 73 67 71 95 104 139 157 125 106 94 79 67 56
83 102 106 130 134 127 141 168 180 175 169 169 95 154 147 120 150 128 121 125 117 129 131 126 137 139 126 132 116 117 94 74 55
107 98 123 125 139 128 118 148 165 179 129 152 146 136 114 184 169 180 186 145 152 133 120 140 164 144 113 120 116 125 119 81 53
125 128 133 122 138 133 115 113 120 77 152 196 135 162 160 75 81 174 197 209 111 143 215 231 115 93 120 124 120 123 114 71 57
164 167 184 153 79 69 76 148 172 207 121 124 184 171 196 117 125 123 131 159 199 181 215 153 167 127 135 130 92 125 88 63 63

GFSFLT1_con_3kmhel_111.txt.gz
Helicity
22 16 7 15 10 0 -3 3 -7 -13 -17 -21 -21 -13 -7 -16 -17 -13 -5 -2 4 16 19 22 23 26 28 26 27 32 28 28 32
21 -1 -12 10 9 -4 -7 -10 -18 -16 -14 -12 -9 -9 -8 -14 -13 -10 -4 2 11 16 21 26 28 29 33 35 36 34 30 35 35
3 -15 -9 6 -4 -18 -20 -17 -15 -8 -6 -5 -3 -5 -13 -10 -6 -8 -6 0 12 17 20 25 27 28 32 35 40 41 39 36 36
-4 -16 2 -11 -28 -29 -27 -21 -11 -5 -2 -1 1 -1 -9 -6 -13 -11 -14 -5 9 12 21 25 25 27 30 36 44 40 38 39 40
-15 -21 -15 -33 -32 -31 -33 -27 -13 -5 -1 0 1 2 -9 -5 -8 -12 -12 3 11 17 22 24 27 30 35 36 40 38 36 38 36
-28 -52 -39 -34 -37 -34 -21 -6 -1 3 -4 -3 -2 -14 -16 -12 -14 -13 -6 7 14 20 24 28 34 36 34 33 37 41 41 39 36
-45 -47 -34 -27 -35 -24 -12 5 12 -8 -18 -21 -17 -19 -9 -10 -9 -9 -5 11 18 25 27 29 30 26 31 37 39 40 42 39 39
-50 -65 -70 -48 -32 -26 -13 -12 -18 -11 -12 -9 -9 -10 -8 -4 -5 -4 -17 11 20 24 29 30 34 33 41 40 35 37 38 37 34
-63 -67 -61 -40 -36 -13 -8 -9 -3 -2 -3 -1 6 6 3 3 2 4 -15 0 19 23 25 27 31 33 38 38 30 27 31 31 30
-58 -50 -39 -25 -11 -6 2 6 7 6 4 5 7 16 22 22 18 14 3 -3 10 24 25 29 31 32 35 43 30 27 30 30 34
-38 -27 -21 -7 -1 8 15 15 18 18 17 20 20 24 29 32 33 31 29 15 8 11 22 28 35 38 33 38 41 38 33 38 40
-22 -13 -7 4 17 33 39 43 38 30 29 28 35 34 37 40 42 40 38 38 22 10 0 15 32 35 30 41 53 47 47 48 53
-5 2 10 26 36 43 52 54 50 44 42 49 50 48 53 54 54 52 47 45 42 33 12 5 14 26 21 19 34 47 39 34 53
11 14 25 42 51 51 59 65 62 62 57 57 54 54 54 61 67 59 59 54 51 51 41 26 28 37 30 35 35 36 33 41 56
23 30 45 59 67 68 68 78 79 85 98 100 85 64 45 45 60 86 74 67 58 48 48 51 59 65 55 47 71 87 83 47 45
24 43 57 72 65 70 96 106 100 112 117 111 114 123 65 67 92 89 78 67 72 72 79 98 89 92 136 136 96 76 93 96 92
43 45 62 77 92 101 98 101 115 112 85 78 87 91 75 111 122 111 87 96 88 109 114 106 102 112 107 133 132 105 83 97 102
46 44 69 88 100 98 91 99 96 77 39 80 110 129 53 58 123 98 144 154 162 166 166 129 132 173 191 154 83 104 69 84 80
43 64 64 114 133 100 73 66 40 73 137 83 88 128 134 107 67 96 114 170 214 193 161 195 193 206 226 169 89 82 43 76 65
88 86 115 154 102 39 74 89 167 114 99 118 123 115 106 105 107 115 75 80 84 97 124 99 100 147 129 102 57 74 61 66 53

GFSFLT1_con_3kmhel_114.txt.gz
Helicity
20 25 52 29 19 16 12 -1 -7 -8 -8 -5 -2 -3 -27 -24 -1 2 3 11 13 19 22 27 29 35 36 42 38 41 40 40 41
16 40 44 18 10 9 7 -3 -8 -6 -1 1 -1 -13 -42 -5 0 3 7 11 17 21 24 25 27 32 31 35 39 44 43 46 42
27 40 24 15 9 1 -3 -7 -5 0 5 3 -1 -15 -31 -7 -1 2 2 2 11 17 20 23 24 29 30 38 40 38 39 43 42
11 28 17 5 -4 -7 -9 0 1 6 10 4 -1 -15 -25 -4 -12 -8 -6 -3 11 16 20 23 31 33 32 38 36 36 38 45 38
-9 21 9 2 -1 -5 -6 2 3 4 4 1 -4 -17 -49 -4 -8 -5 -3 4 9 12 16 21 29 28 31 32 31 39 39 40 38
-5 -7 -2 1 -2 -10 -11 -1 4 3 -3 -6 -18 -41 -16 -9 -7 -1 -2 9 11 13 16 20 21 24 33 36 33 36 38 43 40
-26 -22 -4 -7 -13 -7 -1 5 4 -30 -18 -20 -31 -16 -9 -3 1 13 5 17 18 19 21 22 24 25 30 30 31 28 29 34 34
-32 -22 -29 -39 -43 -26 -18 -13 -23 -13 -12 -14 -15 -10 -1 3 7 26 2 22 26 27 26 26 24 23 26 30 23 20 26 29 28
-36 -44 -61 -58 -54 -33 -28 -30 -17 -9 -4 2 1 -4 4 8 11 35 8 14 28 31 32 30 27 22 19 22 26 27 26 26 30
-55 -70 -66 -55 -38 -32 -23 -17 -9 -5 1 5 7 12 12 14 20 27 35 13 20 33 35 32 34 29 23 26 32 36 29 29 32
-53 -48 -42 -31 -25 -13 -10 -4 1 5 3 11 18 26 31 29 31 32 48 33 21 18 24 30 34 31 25 27 32 37 41 36 38
-24 -18 -13 -5 2 9 13 14 11 13 17 17 22 28 36 42 43 47 45 64 39 19 5 23 28 32 29 35 28 31 37 45 49
8 10 13 21 24 24 23 24 23 23 23 29 32 34 41 39 48 54 60 60 58 61 26 19 18 16 9 10 14 26 26 31 50
32 34 32 32 35 38 42 40 37 44 45 48 47 49 53 55 56 52 59 64 64 58 84 49 33 34 28 8 13 14 30 35 49
45 47 40 44 45 52 55 60 68 70 71 60 46 49 48 40 43 56 75 87 68 60 51 66 72 69 59 47 37 36 33 31 47
58 63 59 62 60 65 77 90 84 75 56 44 47 47 52 56 83 92 97 88 69 73 62 76 90 124 118 88 108 88 69 70 59
65 74 66 59 73 75 77 80 88 60 31 44 49 79 58 89 89 85 79 53 112 104 117 111 120 95 118 180 169 150 76 60 57
86 81 84 86 89 88 80 67 63 62 90 82 80 22 19 70 93 95 98 67 48 90 139 153 169 158 181 204 187 239 141 56 53
98 98 79 74 76 81 80 81 69 54 113 104 54 54 64 79 60 78 75 79 79 77 83 97 121 138 182 171 157 65 60 27 46
87 82 76 77 78 79 102 15 115 105 75 47 87 68 69 82 96 94 96 59 38 57 63 98 112 99 130 109 72 69 67 52 29

GFSFLT1_con_3kmhel_117.txt.gz
Helicity
45 41 66 57 42 35 26 10 1 6 -0 2 -0 -20 -42 -25 5 6 18 13 19 25 24 26 28 35 36 42 44 42 40 49 44
63 68 62 54 46 35 21 -1 -4 3 4 6 -11 -15 13 -5 5 8 9 7 18 18 17 21 23 29 33 39 38 39 44 49 51
82 70 52 40 37 26 13 -3 1 10 7 -0 -19 -23 -6 -3 6 3 -0 1 14 15 17 20 25 29 32 33 33 33 38 45 48
81 67 44 28 26 15 5 5 6 7 4 -3 -21 -11 6 -6 -15 -3 -6 -0 14 14 12 18 20 24 31 30 31 32 32 40 46
74 69 35 30 25 11 6 4 10 7 7 -3 -27 -54 -55 -3 1 -0 -5 10 14 13 9 10 14 22 31 31 37 33 33 44 43
38 48 49 33 15 10 3 2 11 6 -0 -20 -38 -44 -14 -2 1 1 1 14 17 17 14 15 17 22 26 30 32 29 32 37 37
42 61 48 38 20 1 -2 -3 -11 -34 -16 -27 -41 -30 -7 -1 10 12 8 23 25 25 22 19 19 20 23 23 22 24 31 28 33
71 54 11 -2 -18 -18 -18 -20 -27 -29 -18 -19 -15 -10 -0 3 14 27 17 30 33 31 25 24 22 19 18 22 30 31 30 27 36
71 28 -4 -25 -37 -18 -13 -25 -15 -14 -10 -8 -7 -5 6 13 20 36 29 31 37 35 32 29 27 21 22 25 35 31 28 35 43
59 24 -7 -20 -27 -21 -18 -14 -8 -10 -4 4 7 6 11 22 28 60 56 40 37 38 34 34 34 30 28 29 30 33 30 32 36
3 1 -29 -8 -4 -5 -2 1 3 3 3 6 11 14 22 24 37 59 65 64 47 38 38 38 37 34 29 25 24 25 31 36 36
13 -14 -2 2 13 9 12 16 13 10 13 10 16 22 28 38 45 53 75 71 63 45 29 34 40 33 34 29 23 18 19 22 37
46 32 12 20 30 28 25 21 18 15 19 18 23 25 37 36 42 62 60 77 72 64 50 32 32 28 18 15 20 20 20 17 43
50 41 34 37 42 36 32 28 25 28 32 27 27 36 44 39 40 48 53 60 62 60 93 63 49 50 35 18 13 11 20 29 37
66 66 56 56 52 44 43 34 48 47 37 32 36 39 49 58 61 47 64 94 88 71 67 76 73 79 68 48 39 33 54 47 34
81 88 68 65 52 44 46 52 44 52 42 45 56 51 75 60 51 79 89 91 106 92 69 33 106 89 120 144 131 118 116 86 81
108 83 80 75 73 65 52 60 66 59 59 79 99 102 71 79 85 98 83 88 103 112 123 78 87 139 128 126 166 204 219 170 84
112 102 95 82 81 77 77 77 59 63 94 131 158 108 33 89 94 91 83 92 90 89 84 95 119 137 151 148 179 198 194 207 79
144 130 113 120 136 105 80 63 56 61 111 105 118 83 70 79 86 63 86 81 61 73 87 68 108 108 130 135 132 132 118 64 64
161 160 142 133 124 99 77 104 81 12 84 36 99 37 53 46 71 79 79 87 69 62 68 70 95 83 85 94 96 113 116 79 68